Multibeam Report for HLY1402


Ship Name: Healy
Chief Scientist: Pickart, Robert
Woods Hole Oceanographic Institution
Source Organization: UNOLS R2R
Start Date: 2014-07-05
End Date: 2014-07-29


View ISO Metadata

Visit the full NCEI Bathymetry Viewer


Multibeam Bathymetry

Cruise Details

Project: Circulation, Cross-Shelf Exchange, Sea Ice, and Marine Mammal Habitats on the Alaska Beaufort Sea Shelf
Instrument: Kongsberg EM122

Data Quality

Number of Files: 1108
Number of Records: 5375046
BATHYMETRY DATA Quantity Percentage
Number of Beams 2322019008 100%
Number of Good Beams 1904083003 82.0%
Number of Zero Beams 0 0%
Number of Flagged Beams 417936005 18.0%
AMPLITUDE DATA Quantity Percentage
Number of Beams 2322019008 100%
Number of Good Beams 1904083003 82.0%
Number of Zero Beams 0 0%
Number of Flagged Beams 417936005 18.0%
SIDESCAN DATA Quantity Percentage
Number of Pixels 5504045056 100%
Number of Good Pixels 3539645935 64.31%
Number of Zero Pixels 0 0%
Number of Flagged Pixels 1964399121 35.69%

Navigation Totals

Total Time: 530.7727 hours
Total Track Length: 8265.0493 km
Average Speed: 15.572 km/hr (8.4082 knots)

Cruise Bounds

Northern Extent: 73.9595
Southern Extent: 53.91342
Western Extent: -168.85732
Eastern Extent: -150.60292

Limits

Minimum Sonar Depth 7.4165 Maximum Sonar Depth 10.1348
Minimum Altitude 0 Maximum Altitude 5154.9346
Minimum Depth 17.5507 Maximum Depth 5743.207
Minimum Amplitude 0 Maximum Amplitude 34
Minimum Sidescan 0 Maximum Sidescan 34.71

File Information

Full Resolution Bathymetry as collected (raw): 1105

Files File Size Description
0000_20140705_184544_HEALY.all.mb58.gz 205.97MB Kongsberg multibeam vendor format
0001_20140705_191541_HEALY.all.mb58.gz 164.48MB Kongsberg multibeam vendor format
0002_20140705_194542_HEALY.all.mb58.gz 111.68MB Kongsberg multibeam vendor format
0003_20140705_201542_HEALY.all.mb58.gz 82.51MB Kongsberg multibeam vendor format
0004_20140705_204542_HEALY.all.mb58.gz 78.94MB Kongsberg multibeam vendor format
0005_20140705_211543_HEALY.all.mb58.gz 86.37MB Kongsberg multibeam vendor format
0006_20140705_214542_HEALY.all.mb58.gz 90.72MB Kongsberg multibeam vendor format
0007_20140705_221542_HEALY.all.mb58.gz 98.72MB Kongsberg multibeam vendor format
0008_20140705_224542_HEALY.all.mb58.gz 170.33MB Kongsberg multibeam vendor format
0009_20140705_231541_HEALY.all.mb58.gz 196.99MB Kongsberg multibeam vendor format
0010_20140705_234541_HEALY.all.mb58.gz 196.13MB Kongsberg multibeam vendor format
0011_20140706_001541_HEALY.all.mb58.gz 180.24MB Kongsberg multibeam vendor format
0012_20140706_004541_HEALY.all.mb58.gz 151.67MB Kongsberg multibeam vendor format
0013_20140706_011547_HEALY.all.mb58.gz 156.77MB Kongsberg multibeam vendor format
0014_20140706_014547_HEALY.all.mb58.gz 158.11MB Kongsberg multibeam vendor format
0015_20140706_021547_HEALY.all.mb58.gz 157.88MB Kongsberg multibeam vendor format
0016_20140706_024547_HEALY.all.mb58.gz 158.83MB Kongsberg multibeam vendor format
0017_20140706_031547_HEALY.all.mb58.gz 159.00MB Kongsberg multibeam vendor format
0018_20140706_034547_HEALY.all.mb58.gz 159.54MB Kongsberg multibeam vendor format
0019_20140706_041547_HEALY.all.mb58.gz 158.89MB Kongsberg multibeam vendor format
0020_20140706_044546_HEALY.all.mb58.gz 159.65MB Kongsberg multibeam vendor format
0021_20140706_051547_HEALY.all.mb58.gz 161.74MB Kongsberg multibeam vendor format
0022_20140706_054547_HEALY.all.mb58.gz 166.64MB Kongsberg multibeam vendor format
0023_20140706_061546_HEALY.all.mb58.gz 174.07MB Kongsberg multibeam vendor format
0024_20140706_064546_HEALY.all.mb58.gz 180.48MB Kongsberg multibeam vendor format
0025_20140706_071547_HEALY.all.mb58.gz 185.47MB Kongsberg multibeam vendor format
0026_20140706_074546_HEALY.all.mb58.gz 192.90MB Kongsberg multibeam vendor format
0027_20140706_081546_HEALY.all.mb58.gz 198.82MB Kongsberg multibeam vendor format
0028_20140706_084546_HEALY.all.mb58.gz 198.28MB Kongsberg multibeam vendor format
0029_20140706_091546_HEALY.all.mb58.gz 197.93MB Kongsberg multibeam vendor format
0030_20140706_094546_HEALY.all.mb58.gz 197.75MB Kongsberg multibeam vendor format
0031_20140706_101546_HEALY.all.mb58.gz 197.60MB Kongsberg multibeam vendor format
0032_20140706_104546_HEALY.all.mb58.gz 197.20MB Kongsberg multibeam vendor format
0033_20140706_111546_HEALY.all.mb58.gz 197.06MB Kongsberg multibeam vendor format
0034_20140706_114546_HEALY.all.mb58.gz 197.07MB Kongsberg multibeam vendor format
0035_20140706_121546_HEALY.all.mb58.gz 196.70MB Kongsberg multibeam vendor format
0036_20140706_124546_HEALY.all.mb58.gz 196.33MB Kongsberg multibeam vendor format
0037_20140706_131546_HEALY.all.mb58.gz 195.98MB Kongsberg multibeam vendor format
0038_20140706_134546_HEALY.all.mb58.gz 195.49MB Kongsberg multibeam vendor format
0039_20140706_141546_HEALY.all.mb58.gz 194.99MB Kongsberg multibeam vendor format
0040_20140706_144546_HEALY.all.mb58.gz 194.51MB Kongsberg multibeam vendor format
0041_20140706_151546_HEALY.all.mb58.gz 194.30MB Kongsberg multibeam vendor format
0042_20140706_154546_HEALY.all.mb58.gz 194.17MB Kongsberg multibeam vendor format
0043_20140706_161546_HEALY.all.mb58.gz 193.95MB Kongsberg multibeam vendor format
0044_20140706_164546_HEALY.all.mb58.gz 193.84MB Kongsberg multibeam vendor format
0045_20140706_171546_HEALY.all.mb58.gz 193.59MB Kongsberg multibeam vendor format
0046_20140706_174546_HEALY.all.mb58.gz 194.61MB Kongsberg multibeam vendor format
0047_20140706_181546_HEALY.all.mb58.gz 211.66MB Kongsberg multibeam vendor format
0048_20140706_184546_HEALY.all.mb58.gz 216.46MB Kongsberg multibeam vendor format
0049_20140706_191546_HEALY.all.mb58.gz 222.63MB Kongsberg multibeam vendor format
0050_20140706_194546_HEALY.all.mb58.gz 225.91MB Kongsberg multibeam vendor format
0051_20140706_201546_HEALY.all.mb58.gz 227.48MB Kongsberg multibeam vendor format
0052_20140706_204546_HEALY.all.mb58.gz 231.20MB Kongsberg multibeam vendor format
0053_20140706_211546_HEALY.all.mb58.gz 239.74MB Kongsberg multibeam vendor format
0054_20140706_214546_HEALY.all.mb58.gz 245.11MB Kongsberg multibeam vendor format
0055_20140706_221546_HEALY.all.mb58.gz 248.33MB Kongsberg multibeam vendor format
0056_20140706_224546_HEALY.all.mb58.gz 258.86MB Kongsberg multibeam vendor format
0057_20140706_231546_HEALY.all.mb58.gz 263.86MB Kongsberg multibeam vendor format
0058_20140706_234546_HEALY.all.mb58.gz 265.79MB Kongsberg multibeam vendor format
0059_20140707_001546_HEALY.all.mb58.gz 277.81MB Kongsberg multibeam vendor format
0060_20140707_004546_HEALY.all.mb58.gz 276.20MB Kongsberg multibeam vendor format
0061_20140707_011546_HEALY.all.mb58.gz 279.38MB Kongsberg multibeam vendor format
0062_20140707_014546_HEALY.all.mb58.gz 284.24MB Kongsberg multibeam vendor format
0063_20140707_021546_HEALY.all.mb58.gz 288.98MB Kongsberg multibeam vendor format
0064_20140707_024546_HEALY.all.mb58.gz 298.26MB Kongsberg multibeam vendor format
0065_20140707_031546_HEALY.all.mb58.gz 302.45MB Kongsberg multibeam vendor format
0066_20140707_034546_HEALY.all.mb58.gz 303.28MB Kongsberg multibeam vendor format
0067_20140707_041546_HEALY.all.mb58.gz 306.15MB Kongsberg multibeam vendor format
0068_20140707_044546_HEALY.all.mb58.gz 299.36MB Kongsberg multibeam vendor format
0069_20140707_051546_HEALY.all.mb58.gz 284.35MB Kongsberg multibeam vendor format
0070_20140707_054546_HEALY.all.mb58.gz 277.56MB Kongsberg multibeam vendor format
0071_20140707_061546_HEALY.all.mb58.gz 277.54MB Kongsberg multibeam vendor format
0072_20140707_064546_HEALY.all.mb58.gz 248.37MB Kongsberg multibeam vendor format
0073_20140707_071546_HEALY.all.mb58.gz 234.67MB Kongsberg multibeam vendor format
0074_20140707_074546_HEALY.all.mb58.gz 246.64MB Kongsberg multibeam vendor format
0075_20140707_081546_HEALY.all.mb58.gz 263.90MB Kongsberg multibeam vendor format
0076_20140707_084546_HEALY.all.mb58.gz 287.67MB Kongsberg multibeam vendor format
0077_20140707_091546_HEALY.all.mb58.gz 307.14MB Kongsberg multibeam vendor format
0078_20140707_094546_HEALY.all.mb58.gz 305.11MB Kongsberg multibeam vendor format
0079_20140707_101546_HEALY.all.mb58.gz 300.94MB Kongsberg multibeam vendor format
0080_20140707_104546_HEALY.all.mb58.gz 293.39MB Kongsberg multibeam vendor format
0081_20140707_111546_HEALY.all.mb58.gz 285.30MB Kongsberg multibeam vendor format
0082_20140707_114546_HEALY.all.mb58.gz 277.94MB Kongsberg multibeam vendor format
0083_20140707_121546_HEALY.all.mb58.gz 273.87MB Kongsberg multibeam vendor format
0084_20140707_124546_HEALY.all.mb58.gz 291.99MB Kongsberg multibeam vendor format
0085_20140707_131546_HEALY.all.mb58.gz 303.13MB Kongsberg multibeam vendor format
0086_20140707_134546_HEALY.all.mb58.gz 306.96MB Kongsberg multibeam vendor format
0087_20140707_141546_HEALY.all.mb58.gz 304.66MB Kongsberg multibeam vendor format
0088_20140707_144546_HEALY.all.mb58.gz 215.58MB Kongsberg multibeam vendor format
0089_20140707_151546_HEALY.all.mb58.gz 288.39MB Kongsberg multibeam vendor format
0090_20140707_154546_HEALY.all.mb58.gz 254.06MB Kongsberg multibeam vendor format
0091_20140707_161546_HEALY.all.mb58.gz 299.43MB Kongsberg multibeam vendor format
0092_20140707_164546_HEALY.all.mb58.gz 197.73MB Kongsberg multibeam vendor format
0093_20140707_171546_HEALY.all.mb58.gz 172.40MB Kongsberg multibeam vendor format
0094_20140707_175506_HEALY.all.mb58.gz 47.04MB Kongsberg multibeam vendor format
0095_20140707_212953_HEALY.all.mb58.gz 307.04MB Kongsberg multibeam vendor format
0096_20140707_215953_HEALY.all.mb58.gz 287.75MB Kongsberg multibeam vendor format
0097_20140707_222953_HEALY.all.mb58.gz 288.10MB Kongsberg multibeam vendor format
0098_20140707_225953_HEALY.all.mb58.gz 267.38MB Kongsberg multibeam vendor format
0099_20140707_232953_HEALY.all.mb58.gz 279.39MB Kongsberg multibeam vendor format
0100_20140707_235953_HEALY.all.mb58.gz 285.91MB Kongsberg multibeam vendor format
0101_20140708_002953_HEALY.all.mb58.gz 290.81MB Kongsberg multibeam vendor format
0102_20140708_005953_HEALY.all.mb58.gz 280.08MB Kongsberg multibeam vendor format
0103_20140708_012953_HEALY.all.mb58.gz 270.41MB Kongsberg multibeam vendor format
0104_20140708_015953_HEALY.all.mb58.gz 236.84MB Kongsberg multibeam vendor format
0105_20140708_022953_HEALY.all.mb58.gz 213.34MB Kongsberg multibeam vendor format
0106_20140708_025953_HEALY.all.mb58.gz 204.90MB Kongsberg multibeam vendor format
0107_20140708_032953_HEALY.all.mb58.gz 186.73MB Kongsberg multibeam vendor format
0108_20140708_035953_HEALY.all.mb58.gz 187.36MB Kongsberg multibeam vendor format
0109_20140708_042953_HEALY.all.mb58.gz 176.65MB Kongsberg multibeam vendor format
0110_20140708_045953_HEALY.all.mb58.gz 172.04MB Kongsberg multibeam vendor format
0111_20140708_052953_HEALY.all.mb58.gz 195.55MB Kongsberg multibeam vendor format
0112_20140708_055953_HEALY.all.mb58.gz 194.58MB Kongsberg multibeam vendor format
0113_20140708_062953_HEALY.all.mb58.gz 194.80MB Kongsberg multibeam vendor format
0114_20140708_065953_HEALY.all.mb58.gz 194.66MB Kongsberg multibeam vendor format
0115_20140708_072953_HEALY.all.mb58.gz 194.91MB Kongsberg multibeam vendor format
0116_20140708_075953_HEALY.all.mb58.gz 195.34MB Kongsberg multibeam vendor format
0117_20140708_082953_HEALY.all.mb58.gz 195.47MB Kongsberg multibeam vendor format
0118_20140708_085953_HEALY.all.mb58.gz 195.19MB Kongsberg multibeam vendor format
0119_20140708_092953_HEALY.all.mb58.gz 205.88MB Kongsberg multibeam vendor format
0120_20140708_095953_HEALY.all.mb58.gz 231.65MB Kongsberg multibeam vendor format
0121_20140708_102953_HEALY.all.mb58.gz 247.61MB Kongsberg multibeam vendor format
0122_20140708_105953_HEALY.all.mb58.gz 238.66MB Kongsberg multibeam vendor format
0123_20140708_112953_HEALY.all.mb58.gz 225.94MB Kongsberg multibeam vendor format
0124_20140708_115953_HEALY.all.mb58.gz 211.02MB Kongsberg multibeam vendor format
0125_20140708_122953_HEALY.all.mb58.gz 194.85MB Kongsberg multibeam vendor format
0126_20140708_125953_HEALY.all.mb58.gz 188.68MB Kongsberg multibeam vendor format
0127_20140708_132953_HEALY.all.mb58.gz 184.79MB Kongsberg multibeam vendor format
0128_20140708_135953_HEALY.all.mb58.gz 179.99MB Kongsberg multibeam vendor format
0129_20140708_142953_HEALY.all.mb58.gz 181.15MB Kongsberg multibeam vendor format
0130_20140708_145953_HEALY.all.mb58.gz 195.26MB Kongsberg multibeam vendor format
0131_20140708_152953_HEALY.all.mb58.gz 194.87MB Kongsberg multibeam vendor format
0132_20140708_155953_HEALY.all.mb58.gz 194.41MB Kongsberg multibeam vendor format
0133_20140708_162953_HEALY.all.mb58.gz 194.72MB Kongsberg multibeam vendor format
0134_20140708_165953_HEALY.all.mb58.gz 195.38MB Kongsberg multibeam vendor format
0135_20140708_172953_HEALY.all.mb58.gz 195.24MB Kongsberg multibeam vendor format
0136_20140708_175953_HEALY.all.mb58.gz 196.11MB Kongsberg multibeam vendor format
0137_20140708_182953_HEALY.all.mb58.gz 196.75MB Kongsberg multibeam vendor format
0138_20140708_185953_HEALY.all.mb58.gz 197.10MB Kongsberg multibeam vendor format
0139_20140708_192953_HEALY.all.mb58.gz 195.23MB Kongsberg multibeam vendor format
0140_20140708_195953_HEALY.all.mb58.gz 194.18MB Kongsberg multibeam vendor format
0141_20140708_202953_HEALY.all.mb58.gz 193.91MB Kongsberg multibeam vendor format
0142_20140708_205953_HEALY.all.mb58.gz 193.83MB Kongsberg multibeam vendor format
0143_20140708_212953_HEALY.all.mb58.gz 193.76MB Kongsberg multibeam vendor format
0144_20140708_215953_HEALY.all.mb58.gz 194.07MB Kongsberg multibeam vendor format
0145_20140708_222953_HEALY.all.mb58.gz 193.94MB Kongsberg multibeam vendor format
0146_20140708_225953_HEALY.all.mb58.gz 194.27MB Kongsberg multibeam vendor format
0147_20140708_232953_HEALY.all.mb58.gz 175.38MB Kongsberg multibeam vendor format
0148_20140708_235953_HEALY.all.mb58.gz 159.46MB Kongsberg multibeam vendor format
0149_20140709_002953_HEALY.all.mb58.gz 191.23MB Kongsberg multibeam vendor format
0150_20140709_005953_HEALY.all.mb58.gz 192.78MB Kongsberg multibeam vendor format
0151_20140709_012953_HEALY.all.mb58.gz 193.42MB Kongsberg multibeam vendor format
0152_20140709_015953_HEALY.all.mb58.gz 200.35MB Kongsberg multibeam vendor format
0153_20140709_022953_HEALY.all.mb58.gz 202.68MB Kongsberg multibeam vendor format
0154_20140709_025953_HEALY.all.mb58.gz 192.54MB Kongsberg multibeam vendor format
0155_20140709_032953_HEALY.all.mb58.gz 184.54MB Kongsberg multibeam vendor format
0156_20140709_035953_HEALY.all.mb58.gz 174.58MB Kongsberg multibeam vendor format
0157_20140709_042953_HEALY.all.mb58.gz 124.46MB Kongsberg multibeam vendor format
0158_20140709_045953_HEALY.all.mb58.gz 163.48MB Kongsberg multibeam vendor format
0159_20140709_052953_HEALY.all.mb58.gz 139.86MB Kongsberg multibeam vendor format
0160_20140709_055953_HEALY.all.mb58.gz 177.58MB Kongsberg multibeam vendor format
0161_20140709_062953_HEALY.all.mb58.gz 145.61MB Kongsberg multibeam vendor format
0162_20140709_065953_HEALY.all.mb58.gz 83.91MB Kongsberg multibeam vendor format
0163_20140709_072953_HEALY.all.mb58.gz 96.17MB Kongsberg multibeam vendor format
0164_20140709_075953_HEALY.all.mb58.gz 74.53MB Kongsberg multibeam vendor format
0165_20140709_082953_HEALY.all.mb58.gz 79.31MB Kongsberg multibeam vendor format
0166_20140709_085953_HEALY.all.mb58.gz 72.00MB Kongsberg multibeam vendor format
0167_20140709_092953_HEALY.all.mb58.gz 122.30MB Kongsberg multibeam vendor format
0168_20140709_095953_HEALY.all.mb58.gz 124.12MB Kongsberg multibeam vendor format
0169_20140709_102953_HEALY.all.mb58.gz 134.95MB Kongsberg multibeam vendor format
0170_20140709_105953_HEALY.all.mb58.gz 106.00MB Kongsberg multibeam vendor format
0171_20140709_112953_HEALY.all.mb58.gz 140.56MB Kongsberg multibeam vendor format
0172_20140709_115953_HEALY.all.mb58.gz 225.15MB Kongsberg multibeam vendor format
0173_20140709_122953_HEALY.all.mb58.gz 187.81MB Kongsberg multibeam vendor format
0174_20140709_125953_HEALY.all.mb58.gz 178.09MB Kongsberg multibeam vendor format
0175_20140709_132953_HEALY.all.mb58.gz 188.46MB Kongsberg multibeam vendor format
0176_20140709_135953_HEALY.all.mb58.gz 193.22MB Kongsberg multibeam vendor format
0177_20140709_142953_HEALY.all.mb58.gz 154.58MB Kongsberg multibeam vendor format
0178_20140709_145953_HEALY.all.mb58.gz 165.21MB Kongsberg multibeam vendor format
0179_20140709_152953_HEALY.all.mb58.gz 206.56MB Kongsberg multibeam vendor format
0180_20140709_155953_HEALY.all.mb58.gz 183.32MB Kongsberg multibeam vendor format
0181_20140709_162953_HEALY.all.mb58.gz 135.60MB Kongsberg multibeam vendor format
0182_20140709_165953_HEALY.all.mb58.gz 155.66MB Kongsberg multibeam vendor format
0183_20140709_172953_HEALY.all.mb58.gz 157.21MB Kongsberg multibeam vendor format
0184_20140709_175953_HEALY.all.mb58.gz 201.65MB Kongsberg multibeam vendor format
0185_20140709_182953_HEALY.all.mb58.gz 124.62MB Kongsberg multibeam vendor format
0186_20140709_185953_HEALY.all.mb58.gz 139.96MB Kongsberg multibeam vendor format
0187_20140709_192953_HEALY.all.mb58.gz 184.36MB Kongsberg multibeam vendor format
0188_20140709_195953_HEALY.all.mb58.gz 189.96MB Kongsberg multibeam vendor format
0189_20140709_202953_HEALY.all.mb58.gz 186.35MB Kongsberg multibeam vendor format
0190_20140709_205953_HEALY.all.mb58.gz 186.56MB Kongsberg multibeam vendor format
0191_20140709_212953_HEALY.all.mb58.gz 176.59MB Kongsberg multibeam vendor format
0192_20140709_215953_HEALY.all.mb58.gz 181.39MB Kongsberg multibeam vendor format
0193_20140709_222953_HEALY.all.mb58.gz 173.70MB Kongsberg multibeam vendor format
0194_20140709_225953_HEALY.all.mb58.gz 173.57MB Kongsberg multibeam vendor format
0195_20140709_232953_HEALY.all.mb58.gz 174.77MB Kongsberg multibeam vendor format
0196_20140709_235953_HEALY.all.mb58.gz 35.88MB Kongsberg multibeam vendor format
0197_20140710_012412_HEALY.all.mb58.gz 173.49MB Kongsberg multibeam vendor format
0198_20140710_015412_HEALY.all.mb58.gz 173.12MB Kongsberg multibeam vendor format
0199_20140710_022413_HEALY.all.mb58.gz 148.20MB Kongsberg multibeam vendor format
0200_20140710_025412_HEALY.all.mb58.gz 163.49MB Kongsberg multibeam vendor format
0201_20140710_032412_HEALY.all.mb58.gz 163.14MB Kongsberg multibeam vendor format
0202_20140710_035412_HEALY.all.mb58.gz 162.80MB Kongsberg multibeam vendor format
0203_20140710_042413_HEALY.all.mb58.gz 149.08MB Kongsberg multibeam vendor format
0204_20140710_045412_HEALY.all.mb58.gz 163.34MB Kongsberg multibeam vendor format
0205_20140710_052412_HEALY.all.mb58.gz 150.60MB Kongsberg multibeam vendor format
0206_20140710_055413_HEALY.all.mb58.gz 120.96MB Kongsberg multibeam vendor format
0207_20140710_062412_HEALY.all.mb58.gz 157.22MB Kongsberg multibeam vendor format
0208_20140710_065413_HEALY.all.mb58.gz 128.87MB Kongsberg multibeam vendor format
0209_20140710_072412_HEALY.all.mb58.gz 109.19MB Kongsberg multibeam vendor format
0210_20140710_075412_HEALY.all.mb58.gz 111.33MB Kongsberg multibeam vendor format
0211_20140710_082413_HEALY.all.mb58.gz 194.77MB Kongsberg multibeam vendor format
0212_20140710_085412_HEALY.all.mb58.gz 134.16MB Kongsberg multibeam vendor format
0213_20140710_092413_HEALY.all.mb58.gz 105.00MB Kongsberg multibeam vendor format
0214_20140710_095412_HEALY.all.mb58.gz 198.15MB Kongsberg multibeam vendor format
0215_20140710_102412_HEALY.all.mb58.gz 100.88MB Kongsberg multibeam vendor format
0216_20140710_105412_HEALY.all.mb58.gz 87.48MB Kongsberg multibeam vendor format
0217_20140710_112412_HEALY.all.mb58.gz 87.11MB Kongsberg multibeam vendor format
0218_20140710_115412_HEALY.all.mb58.gz 120.79MB Kongsberg multibeam vendor format
0219_20140710_122412_HEALY.all.mb58.gz 109.65MB Kongsberg multibeam vendor format
0220_20140710_125412_HEALY.all.mb58.gz 103.29MB Kongsberg multibeam vendor format
0221_20140710_132413_HEALY.all.mb58.gz 77.49MB Kongsberg multibeam vendor format
0222_20140710_135412_HEALY.all.mb58.gz 80.19MB Kongsberg multibeam vendor format
0223_20140710_142412_HEALY.all.mb58.gz 103.12MB Kongsberg multibeam vendor format
0224_20140710_145412_HEALY.all.mb58.gz 130.58MB Kongsberg multibeam vendor format
0225_20140710_152412_HEALY.all.mb58.gz 125.12MB Kongsberg multibeam vendor format
0226_20140710_155412_HEALY.all.mb58.gz 120.13MB Kongsberg multibeam vendor format
0227_20140710_162412_HEALY.all.mb58.gz 91.53MB Kongsberg multibeam vendor format
0228_20140710_165412_HEALY.all.mb58.gz 93.59MB Kongsberg multibeam vendor format
0229_20140710_172412_HEALY.all.mb58.gz 135.09MB Kongsberg multibeam vendor format
0230_20140710_175412_HEALY.all.mb58.gz 152.21MB Kongsberg multibeam vendor format
0231_20140710_182412_HEALY.all.mb58.gz 80.77MB Kongsberg multibeam vendor format
0232_20140710_185412_HEALY.all.mb58.gz 116.76MB Kongsberg multibeam vendor format
0233_20140710_192412_HEALY.all.mb58.gz 185.88MB Kongsberg multibeam vendor format
0234_20140710_195412_HEALY.all.mb58.gz 83.60MB Kongsberg multibeam vendor format
0235_20140710_202412_HEALY.all.mb58.gz 85.89MB Kongsberg multibeam vendor format
0236_20140710_205412_HEALY.all.mb58.gz 169.43MB Kongsberg multibeam vendor format
0237_20140710_212412_HEALY.all.mb58.gz 109.99MB Kongsberg multibeam vendor format
0238_20140710_215412_HEALY.all.mb58.gz 91.69MB Kongsberg multibeam vendor format
0239_20140710_222412_HEALY.all.mb58.gz 161.81MB Kongsberg multibeam vendor format
0240_20140710_225412_HEALY.all.mb58.gz 181.79MB Kongsberg multibeam vendor format
0241_20140710_232412_HEALY.all.mb58.gz 89.62MB Kongsberg multibeam vendor format
0242_20140710_235412_HEALY.all.mb58.gz 98.20MB Kongsberg multibeam vendor format
0243_20140711_002412_HEALY.all.mb58.gz 163.54MB Kongsberg multibeam vendor format
0244_20140711_005412_HEALY.all.mb58.gz 142.24MB Kongsberg multibeam vendor format
0245_20140711_012412_HEALY.all.mb58.gz 87.20MB Kongsberg multibeam vendor format
0246_20140711_015412_HEALY.all.mb58.gz 158.33MB Kongsberg multibeam vendor format
0247_20140711_022412_HEALY.all.mb58.gz 197.09MB Kongsberg multibeam vendor format
0248_20140711_025412_HEALY.all.mb58.gz 97.42MB Kongsberg multibeam vendor format
0249_20140711_032412_HEALY.all.mb58.gz 80.27MB Kongsberg multibeam vendor format
0250_20140711_035412_HEALY.all.mb58.gz 129.17MB Kongsberg multibeam vendor format
0251_20140711_042412_HEALY.all.mb58.gz 199.18MB Kongsberg multibeam vendor format
0252_20140711_045412_HEALY.all.mb58.gz 91.57MB Kongsberg multibeam vendor format
0253_20140711_052412_HEALY.all.mb58.gz 73.05MB Kongsberg multibeam vendor format
0254_20140711_055412_HEALY.all.mb58.gz 118.87MB Kongsberg multibeam vendor format
0255_20140711_062412_HEALY.all.mb58.gz 145.35MB Kongsberg multibeam vendor format
0256_20140711_065412_HEALY.all.mb58.gz 48.47MB Kongsberg multibeam vendor format
0257_20140711_072412_HEALY.all.mb58.gz 117.92MB Kongsberg multibeam vendor format
0258_20140711_075412_HEALY.all.mb58.gz 132.38MB Kongsberg multibeam vendor format
0259_20140711_082412_HEALY.all.mb58.gz 52.07MB Kongsberg multibeam vendor format
0260_20140711_085412_HEALY.all.mb58.gz 64.90MB Kongsberg multibeam vendor format
0261_20140711_092413_HEALY.all.mb58.gz 143.39MB Kongsberg multibeam vendor format
0262_20140711_095412_HEALY.all.mb58.gz 85.65MB Kongsberg multibeam vendor format
0263_20140711_102412_HEALY.all.mb58.gz 72.46MB Kongsberg multibeam vendor format
0264_20140711_105412_HEALY.all.mb58.gz 90.84MB Kongsberg multibeam vendor format
0265_20140711_112412_HEALY.all.mb58.gz 142.25MB Kongsberg multibeam vendor format
0266_20140711_115412_HEALY.all.mb58.gz 63.52MB Kongsberg multibeam vendor format
0267_20140711_122412_HEALY.all.mb58.gz 59.84MB Kongsberg multibeam vendor format
0268_20140711_125412_HEALY.all.mb58.gz 60.93MB Kongsberg multibeam vendor format
0269_20140711_132412_HEALY.all.mb58.gz 64.17MB Kongsberg multibeam vendor format
0270_20140711_135412_HEALY.all.mb58.gz 61.78MB Kongsberg multibeam vendor format
0271_20140711_142412_HEALY.all.mb58.gz 59.44MB Kongsberg multibeam vendor format
0272_20140711_145412_HEALY.all.mb58.gz 68.45MB Kongsberg multibeam vendor format
0273_20140711_152412_HEALY.all.mb58.gz 54.59MB Kongsberg multibeam vendor format
0274_20140711_155412_HEALY.all.mb58.gz 44.51MB Kongsberg multibeam vendor format
0275_20140711_162412_HEALY.all.mb58.gz 41.32MB Kongsberg multibeam vendor format
0276_20140711_165412_HEALY.all.mb58.gz 45.23MB Kongsberg multibeam vendor format
0277_20140711_172412_HEALY.all.mb58.gz 54.37MB Kongsberg multibeam vendor format
0278_20140711_175412_HEALY.all.mb58.gz 58.55MB Kongsberg multibeam vendor format
0279_20140711_182412_HEALY.all.mb58.gz 66.25MB Kongsberg multibeam vendor format
0280_20140711_185412_HEALY.all.mb58.gz 68.30MB Kongsberg multibeam vendor format
0281_20140711_192412_HEALY.all.mb58.gz 57.66MB Kongsberg multibeam vendor format
0282_20140711_195412_HEALY.all.mb58.gz 57.30MB Kongsberg multibeam vendor format
0283_20140711_202412_HEALY.all.mb58.gz 73.97MB Kongsberg multibeam vendor format
0284_20140711_205412_HEALY.all.mb58.gz 42.79MB Kongsberg multibeam vendor format
0285_20140711_212412_HEALY.all.mb58.gz 47.01MB Kongsberg multibeam vendor format
0286_20140711_215412_HEALY.all.mb58.gz 46.61MB Kongsberg multibeam vendor format
0287_20140711_222412_HEALY.all.mb58.gz 69.56MB Kongsberg multibeam vendor format
0288_20140711_225412_HEALY.all.mb58.gz 101.50MB Kongsberg multibeam vendor format
0289_20140711_232412_HEALY.all.mb58.gz 198.21MB Kongsberg multibeam vendor format
0290_20140711_235412_HEALY.all.mb58.gz 137.41MB Kongsberg multibeam vendor format
0291_20140712_002412_HEALY.all.mb58.gz 82.54MB Kongsberg multibeam vendor format
0292_20140712_005412_HEALY.all.mb58.gz 67.51MB Kongsberg multibeam vendor format
0293_20140712_012412_HEALY.all.mb58.gz 56.40MB Kongsberg multibeam vendor format
0294_20140712_015412_HEALY.all.mb58.gz 61.50MB Kongsberg multibeam vendor format
0295_20140712_022412_HEALY.all.mb58.gz 85.95MB Kongsberg multibeam vendor format
0296_20140712_025412_HEALY.all.mb58.gz 78.55MB Kongsberg multibeam vendor format
0297_20140712_032412_HEALY.all.mb58.gz 100.19MB Kongsberg multibeam vendor format
0298_20140712_035412_HEALY.all.mb58.gz 166.20MB Kongsberg multibeam vendor format
0299_20140712_042412_HEALY.all.mb58.gz 148.88MB Kongsberg multibeam vendor format
0300_20140712_045412_HEALY.all.mb58.gz 105.32MB Kongsberg multibeam vendor format
0301_20140712_052412_HEALY.all.mb58.gz 67.32MB Kongsberg multibeam vendor format
0302_20140712_055412_HEALY.all.mb58.gz 136.16MB Kongsberg multibeam vendor format
0303_20140712_062412_HEALY.all.mb58.gz 82.73MB Kongsberg multibeam vendor format
0304_20140712_065412_HEALY.all.mb58.gz 70.78MB Kongsberg multibeam vendor format
0305_20140712_072412_HEALY.all.mb58.gz 100.56MB Kongsberg multibeam vendor format
0306_20140712_075412_HEALY.all.mb58.gz 155.24MB Kongsberg multibeam vendor format
0307_20140712_082412_HEALY.all.mb58.gz 132.22MB Kongsberg multibeam vendor format
0308_20140712_085412_HEALY.all.mb58.gz 131.08MB Kongsberg multibeam vendor format
0309_20140712_092412_HEALY.all.mb58.gz 109.73MB Kongsberg multibeam vendor format
0310_20140712_095412_HEALY.all.mb58.gz 140.33MB Kongsberg multibeam vendor format
0311_20140712_102412_HEALY.all.mb58.gz 121.39MB Kongsberg multibeam vendor format
0312_20140712_105412_HEALY.all.mb58.gz 125.21MB Kongsberg multibeam vendor format
0313_20140712_112412_HEALY.all.mb58.gz 90.16MB Kongsberg multibeam vendor format
0314_20140712_115412_HEALY.all.mb58.gz 54.07MB Kongsberg multibeam vendor format
0315_20140712_122412_HEALY.all.mb58.gz 57.18MB Kongsberg multibeam vendor format
0316_20140712_125412_HEALY.all.mb58.gz 91.85MB Kongsberg multibeam vendor format
0317_20140712_132412_HEALY.all.mb58.gz 110.90MB Kongsberg multibeam vendor format
0318_20140712_135412_HEALY.all.mb58.gz 70.62MB Kongsberg multibeam vendor format
0319_20140712_142412_HEALY.all.mb58.gz 70.87MB Kongsberg multibeam vendor format
0320_20140712_145412_HEALY.all.mb58.gz 76.53MB Kongsberg multibeam vendor format
0321_20140712_152412_HEALY.all.mb58.gz 172.17MB Kongsberg multibeam vendor format
0322_20140712_155412_HEALY.all.mb58.gz 189.02MB Kongsberg multibeam vendor format
0323_20140712_162412_HEALY.all.mb58.gz 93.35MB Kongsberg multibeam vendor format
0324_20140712_165412_HEALY.all.mb58.gz 176.03MB Kongsberg multibeam vendor format
0325_20140712_172412_HEALY.all.mb58.gz 115.98MB Kongsberg multibeam vendor format
0326_20140712_175412_HEALY.all.mb58.gz 101.80MB Kongsberg multibeam vendor format
0327_20140712_182413_HEALY.all.mb58.gz 126.20MB Kongsberg multibeam vendor format
0328_20140712_185412_HEALY.all.mb58.gz 125.21MB Kongsberg multibeam vendor format
0329_20140712_192413_HEALY.all.mb58.gz 125.81MB Kongsberg multibeam vendor format
0330_20140712_195413_HEALY.all.mb58.gz 118.50MB Kongsberg multibeam vendor format
0331_20140712_202412_HEALY.all.mb58.gz 104.24MB Kongsberg multibeam vendor format
0332_20140712_205413_HEALY.all.mb58.gz 108.58MB Kongsberg multibeam vendor format
0333_20140712_212412_HEALY.all.mb58.gz 124.24MB Kongsberg multibeam vendor format
0334_20140712_215412_HEALY.all.mb58.gz 124.01MB Kongsberg multibeam vendor format
0335_20140712_222412_HEALY.all.mb58.gz 124.19MB Kongsberg multibeam vendor format
0336_20140712_225413_HEALY.all.mb58.gz 122.42MB Kongsberg multibeam vendor format
0337_20140712_232412_HEALY.all.mb58.gz 123.71MB Kongsberg multibeam vendor format
0338_20140712_235413_HEALY.all.mb58.gz 126.19MB Kongsberg multibeam vendor format
0339_20140713_002413_HEALY.all.mb58.gz 128.11MB Kongsberg multibeam vendor format
0340_20140713_005412_HEALY.all.mb58.gz 135.92MB Kongsberg multibeam vendor format
0341_20140713_012418_HEALY.all.mb58.gz 174.57MB Kongsberg multibeam vendor format
0342_20140713_015418_HEALY.all.mb58.gz 194.55MB Kongsberg multibeam vendor format
0343_20140713_022417_HEALY.all.mb58.gz 199.28MB Kongsberg multibeam vendor format
0344_20140713_025417_HEALY.all.mb58.gz 199.21MB Kongsberg multibeam vendor format
0345_20140713_032418_HEALY.all.mb58.gz 196.13MB Kongsberg multibeam vendor format
0346_20140713_035418_HEALY.all.mb58.gz 197.45MB Kongsberg multibeam vendor format
0347_20140713_042417_HEALY.all.mb58.gz 194.32MB Kongsberg multibeam vendor format
0348_20140713_045417_HEALY.all.mb58.gz 188.27MB Kongsberg multibeam vendor format
0349_20140713_052418_HEALY.all.mb58.gz 151.26MB Kongsberg multibeam vendor format
0350_20140713_055417_HEALY.all.mb58.gz 188.86MB Kongsberg multibeam vendor format
0351_20140713_062417_HEALY.all.mb58.gz 186.41MB Kongsberg multibeam vendor format
0352_20140713_065417_HEALY.all.mb58.gz 168.34MB Kongsberg multibeam vendor format
0353_20140713_072417_HEALY.all.mb58.gz 197.26MB Kongsberg multibeam vendor format
0354_20140713_075417_HEALY.all.mb58.gz 143.42MB Kongsberg multibeam vendor format
0355_20140713_082417_HEALY.all.mb58.gz 179.58MB Kongsberg multibeam vendor format
0356_20140713_085418_HEALY.all.mb58.gz 183.46MB Kongsberg multibeam vendor format
0357_20140713_092417_HEALY.all.mb58.gz 118.53MB Kongsberg multibeam vendor format
0358_20140713_095417_HEALY.all.mb58.gz 115.85MB Kongsberg multibeam vendor format
0359_20140713_102109_HEALY.all.mb58.gz 124.58MB Kongsberg multibeam vendor format
0360_20140713_105104_HEALY.all.mb58.gz 96.48MB Kongsberg multibeam vendor format
0361_20140713_112105_HEALY.all.mb58.gz 115.02MB Kongsberg multibeam vendor format
0362_20140713_115105_HEALY.all.mb58.gz 66.68MB Kongsberg multibeam vendor format
0363_20140713_122104_HEALY.all.mb58.gz 41.12MB Kongsberg multibeam vendor format
0364_20140713_125104_HEALY.all.mb58.gz 40.99MB Kongsberg multibeam vendor format
0365_20140713_132104_HEALY.all.mb58.gz 41.11MB Kongsberg multibeam vendor format
0366_20140713_135104_HEALY.all.mb58.gz 43.90MB Kongsberg multibeam vendor format
0367_20140713_142106_HEALY.all.mb58.gz 41.05MB Kongsberg multibeam vendor format
0368_20140713_145106_HEALY.all.mb58.gz 41.11MB Kongsberg multibeam vendor format
0369_20140713_152106_HEALY.all.mb58.gz 56.23MB Kongsberg multibeam vendor format
0370_20140713_155104_HEALY.all.mb58.gz 53.88MB Kongsberg multibeam vendor format
0371_20140713_162106_HEALY.all.mb58.gz 56.06MB Kongsberg multibeam vendor format
0372_20140713_165106_HEALY.all.mb58.gz 59.66MB Kongsberg multibeam vendor format
0373_20140713_172105_HEALY.all.mb58.gz 52.92MB Kongsberg multibeam vendor format
0374_20140713_175105_HEALY.all.mb58.gz 53.37MB Kongsberg multibeam vendor format
0375_20140713_182106_HEALY.all.mb58.gz 53.84MB Kongsberg multibeam vendor format
0376_20140713_185112_HEALY.all.mb58.gz 50.55MB Kongsberg multibeam vendor format
0377_20140713_192109_HEALY.all.mb58.gz 19.35MB Kongsberg multibeam vendor format
0378_20140713_193312_HEALY.all.mb58.gz 2.46MB Kongsberg multibeam vendor format
0379_20140713_193436_HEALY.all.mb58.gz 46.88MB Kongsberg multibeam vendor format
0380_20140713_200439_HEALY.all.mb58.gz 50.20MB Kongsberg multibeam vendor format
0381_20140713_203439_HEALY.all.mb58.gz 51.85MB Kongsberg multibeam vendor format
0382_20140713_210441_HEALY.all.mb58.gz 48.57MB Kongsberg multibeam vendor format
0383_20140713_213438_HEALY.all.mb58.gz 48.41MB Kongsberg multibeam vendor format
0384_20140713_220436_HEALY.all.mb58.gz 52.41MB Kongsberg multibeam vendor format
0385_20140713_223433_HEALY.all.mb58.gz 51.72MB Kongsberg multibeam vendor format
0386_20140713_230434_HEALY.all.mb58.gz 48.53MB Kongsberg multibeam vendor format
0387_20140713_233434_HEALY.all.mb58.gz 48.08MB Kongsberg multibeam vendor format
0388_20140714_000440_HEALY.all.mb58.gz 52.35MB Kongsberg multibeam vendor format
0389_20140714_003432_HEALY.all.mb58.gz 68.95MB Kongsberg multibeam vendor format
0390_20140714_010434_HEALY.all.mb58.gz 62.28MB Kongsberg multibeam vendor format
0391_20140714_013436_HEALY.all.mb58.gz 61.59MB Kongsberg multibeam vendor format
0392_20140714_020435_HEALY.all.mb58.gz 74.89MB Kongsberg multibeam vendor format
0393_20140714_023434_HEALY.all.mb58.gz 50.75MB Kongsberg multibeam vendor format
0394_20140714_030432_HEALY.all.mb58.gz 81.02MB Kongsberg multibeam vendor format
0395_20140714_033433_HEALY.all.mb58.gz 90.42MB Kongsberg multibeam vendor format
0396_20140714_040433_HEALY.all.mb58.gz 66.53MB Kongsberg multibeam vendor format
0397_20140714_043432_HEALY.all.mb58.gz 96.05MB Kongsberg multibeam vendor format
0398_20140714_050433_HEALY.all.mb58.gz 90.00MB Kongsberg multibeam vendor format
0399_20140714_053433_HEALY.all.mb58.gz 60.61MB Kongsberg multibeam vendor format
0400_20140714_060433_HEALY.all.mb58.gz 109.08MB Kongsberg multibeam vendor format
0401_20140714_063433_HEALY.all.mb58.gz 93.81MB Kongsberg multibeam vendor format
0402_20140714_070432_HEALY.all.mb58.gz 101.02MB Kongsberg multibeam vendor format
0403_20140714_073433_HEALY.all.mb58.gz 120.81MB Kongsberg multibeam vendor format
0404_20140714_080432_HEALY.all.mb58.gz 98.42MB Kongsberg multibeam vendor format
0405_20140714_083432_HEALY.all.mb58.gz 145.92MB Kongsberg multibeam vendor format
0406_20140714_090432_HEALY.all.mb58.gz 87.07MB Kongsberg multibeam vendor format
0407_20140714_093432_HEALY.all.mb58.gz 189.98MB Kongsberg multibeam vendor format
0408_20140714_100432_HEALY.all.mb58.gz 119.90MB Kongsberg multibeam vendor format
0409_20140714_103432_HEALY.all.mb58.gz 183.61MB Kongsberg multibeam vendor format
0410_20140714_110432_HEALY.all.mb58.gz 138.27MB Kongsberg multibeam vendor format
0411_20140714_113432_HEALY.all.mb58.gz 181.31MB Kongsberg multibeam vendor format
0412_20140714_120432_HEALY.all.mb58.gz 170.35MB Kongsberg multibeam vendor format
0413_20140714_123432_HEALY.all.mb58.gz 187.78MB Kongsberg multibeam vendor format
0414_20140714_130432_HEALY.all.mb58.gz 173.75MB Kongsberg multibeam vendor format
0415_20140714_133432_HEALY.all.mb58.gz 100.33MB Kongsberg multibeam vendor format
0416_20140714_140432_HEALY.all.mb58.gz 86.89MB Kongsberg multibeam vendor format
0417_20140714_143432_HEALY.all.mb58.gz 151.02MB Kongsberg multibeam vendor format
0418_20140714_150432_HEALY.all.mb58.gz 136.17MB Kongsberg multibeam vendor format
0419_20140714_153432_HEALY.all.mb58.gz 101.09MB Kongsberg multibeam vendor format
0420_20140714_160432_HEALY.all.mb58.gz 142.15MB Kongsberg multibeam vendor format
0421_20140714_163432_HEALY.all.mb58.gz 151.95MB Kongsberg multibeam vendor format
0422_20140714_170432_HEALY.all.mb58.gz 129.57MB Kongsberg multibeam vendor format
0423_20140714_173432_HEALY.all.mb58.gz 145.91MB Kongsberg multibeam vendor format
0424_20140714_180432_HEALY.all.mb58.gz 180.41MB Kongsberg multibeam vendor format
0425_20140714_183432_HEALY.all.mb58.gz 139.83MB Kongsberg multibeam vendor format
0426_20140714_190432_HEALY.all.mb58.gz 84.77MB Kongsberg multibeam vendor format
0427_20140714_193432_HEALY.all.mb58.gz 60.94MB Kongsberg multibeam vendor format
0428_20140714_200432_HEALY.all.mb58.gz 195.02MB Kongsberg multibeam vendor format
0429_20140714_203432_HEALY.all.mb58.gz 127.03MB Kongsberg multibeam vendor format
0430_20140714_210432_HEALY.all.mb58.gz 121.59MB Kongsberg multibeam vendor format
0431_20140714_213432_HEALY.all.mb58.gz 193.00MB Kongsberg multibeam vendor format
0432_20140714_220432_HEALY.all.mb58.gz 198.06MB Kongsberg multibeam vendor format
0433_20140714_223432_HEALY.all.mb58.gz 134.57MB Kongsberg multibeam vendor format
0434_20140714_230432_HEALY.all.mb58.gz 241.46MB Kongsberg multibeam vendor format
0435_20140714_233432_HEALY.all.mb58.gz 221.49MB Kongsberg multibeam vendor format
0436_20140715_000432_HEALY.all.mb58.gz 118.70MB Kongsberg multibeam vendor format
0437_20140715_003432_HEALY.all.mb58.gz 166.78MB Kongsberg multibeam vendor format
0438_20140715_010432_HEALY.all.mb58.gz 142.52MB Kongsberg multibeam vendor format
0439_20140715_013432_HEALY.all.mb58.gz 158.27MB Kongsberg multibeam vendor format
0440_20140715_020432_HEALY.all.mb58.gz 162.93MB Kongsberg multibeam vendor format
0441_20140715_023432_HEALY.all.mb58.gz 151.55MB Kongsberg multibeam vendor format
0442_20140715_030432_HEALY.all.mb58.gz 178.99MB Kongsberg multibeam vendor format
0443_20140715_033432_HEALY.all.mb58.gz 106.60MB Kongsberg multibeam vendor format
0444_20140715_040432_HEALY.all.mb58.gz 137.13MB Kongsberg multibeam vendor format
0445_20140715_043432_HEALY.all.mb58.gz 111.12MB Kongsberg multibeam vendor format
0446_20140715_050432_HEALY.all.mb58.gz 114.39MB Kongsberg multibeam vendor format
0447_20140715_053432_HEALY.all.mb58.gz 131.03MB Kongsberg multibeam vendor format
0448_20140715_060432_HEALY.all.mb58.gz 142.75MB Kongsberg multibeam vendor format
0449_20140715_063432_HEALY.all.mb58.gz 195.97MB Kongsberg multibeam vendor format
0450_20140715_070432_HEALY.all.mb58.gz 185.02MB Kongsberg multibeam vendor format
0451_20140715_073432_HEALY.all.mb58.gz 173.32MB Kongsberg multibeam vendor format
0452_20140715_080432_HEALY.all.mb58.gz 181.62MB Kongsberg multibeam vendor format
0453_20140715_083432_HEALY.all.mb58.gz 151.75MB Kongsberg multibeam vendor format
0454_20140715_090432_HEALY.all.mb58.gz 185.91MB Kongsberg multibeam vendor format
0455_20140715_093432_HEALY.all.mb58.gz 138.69MB Kongsberg multibeam vendor format
0456_20140715_100432_HEALY.all.mb58.gz 41.03MB Kongsberg multibeam vendor format
0457_20140715_103432_HEALY.all.mb58.gz 41.13MB Kongsberg multibeam vendor format
0458_20140715_110432_HEALY.all.mb58.gz 91.81MB Kongsberg multibeam vendor format
0459_20140715_113432_HEALY.all.mb58.gz 147.57MB Kongsberg multibeam vendor format
0460_20140715_120433_HEALY.all.mb58.gz 130.56MB Kongsberg multibeam vendor format
0461_20140715_123432_HEALY.all.mb58.gz 161.18MB Kongsberg multibeam vendor format
0462_20140715_130433_HEALY.all.mb58.gz 141.93MB Kongsberg multibeam vendor format
0463_20140715_133432_HEALY.all.mb58.gz 179.65MB Kongsberg multibeam vendor format
0464_20140715_140432_HEALY.all.mb58.gz 124.32MB Kongsberg multibeam vendor format
0465_20140715_143432_HEALY.all.mb58.gz 162.05MB Kongsberg multibeam vendor format
0466_20140715_150432_HEALY.all.mb58.gz 122.97MB Kongsberg multibeam vendor format
0467_20140715_153432_HEALY.all.mb58.gz 178.79MB Kongsberg multibeam vendor format
0468_20140715_160432_HEALY.all.mb58.gz 183.20MB Kongsberg multibeam vendor format
0469_20140715_163432_HEALY.all.mb58.gz 124.17MB Kongsberg multibeam vendor format
0470_20140715_170432_HEALY.all.mb58.gz 115.60MB Kongsberg multibeam vendor format
0471_20140715_173432_HEALY.all.mb58.gz 118.27MB Kongsberg multibeam vendor format
0472_20140715_180432_HEALY.all.mb58.gz 119.70MB Kongsberg multibeam vendor format
0473_20140715_183432_HEALY.all.mb58.gz 97.15MB Kongsberg multibeam vendor format
0474_20140715_190432_HEALY.all.mb58.gz 144.95MB Kongsberg multibeam vendor format
0475_20140715_193432_HEALY.all.mb58.gz 132.80MB Kongsberg multibeam vendor format
0476_20140715_200432_HEALY.all.mb58.gz 131.01MB Kongsberg multibeam vendor format
0477_20140715_203432_HEALY.all.mb58.gz 180.37MB Kongsberg multibeam vendor format
0478_20140715_210432_HEALY.all.mb58.gz 198.01MB Kongsberg multibeam vendor format
0479_20140715_213432_HEALY.all.mb58.gz 170.71MB Kongsberg multibeam vendor format
0480_20140715_220432_HEALY.all.mb58.gz 197.42MB Kongsberg multibeam vendor format
0481_20140715_223432_HEALY.all.mb58.gz 167.19MB Kongsberg multibeam vendor format
0482_20140715_230432_HEALY.all.mb58.gz 180.74MB Kongsberg multibeam vendor format
0483_20140715_233432_HEALY.all.mb58.gz 145.18MB Kongsberg multibeam vendor format
0484_20140716_000432_HEALY.all.mb58.gz 154.31MB Kongsberg multibeam vendor format
0485_20140716_003432_HEALY.all.mb58.gz 119.10MB Kongsberg multibeam vendor format
0486_20140716_010432_HEALY.all.mb58.gz 112.14MB Kongsberg multibeam vendor format
0487_20140716_013433_HEALY.all.mb58.gz 122.73MB Kongsberg multibeam vendor format
0488_20140716_020433_HEALY.all.mb58.gz 94.88MB Kongsberg multibeam vendor format
0489_20140716_023433_HEALY.all.mb58.gz 111.96MB Kongsberg multibeam vendor format
0490_20140716_030433_HEALY.all.mb58.gz 81.38MB Kongsberg multibeam vendor format
0491_20140716_033433_HEALY.all.mb58.gz 98.63MB Kongsberg multibeam vendor format
0492_20140716_040433_HEALY.all.mb58.gz 92.77MB Kongsberg multibeam vendor format
0493_20140716_043432_HEALY.all.mb58.gz 52.56MB Kongsberg multibeam vendor format
0494_20140716_050434_HEALY.all.mb58.gz 59.59MB Kongsberg multibeam vendor format
0495_20140716_053432_HEALY.all.mb58.gz 150.19MB Kongsberg multibeam vendor format
0496_20140716_060432_HEALY.all.mb58.gz 152.01MB Kongsberg multibeam vendor format
0497_20140716_063432_HEALY.all.mb58.gz 143.83MB Kongsberg multibeam vendor format
0498_20140716_070432_HEALY.all.mb58.gz 161.93MB Kongsberg multibeam vendor format
0499_20140716_073432_HEALY.all.mb58.gz 182.87MB Kongsberg multibeam vendor format
0500_20140716_080432_HEALY.all.mb58.gz 168.65MB Kongsberg multibeam vendor format
0501_20140716_083432_HEALY.all.mb58.gz 179.11MB Kongsberg multibeam vendor format
0502_20140716_090432_HEALY.all.mb58.gz 197.54MB Kongsberg multibeam vendor format
0503_20140716_093432_HEALY.all.mb58.gz 170.36MB Kongsberg multibeam vendor format
0504_20140716_100432_HEALY.all.mb58.gz 108.11MB Kongsberg multibeam vendor format
0505_20140716_103432_HEALY.all.mb58.gz 90.77MB Kongsberg multibeam vendor format
0506_20140716_110432_HEALY.all.mb58.gz 90.16MB Kongsberg multibeam vendor format
0507_20140716_113432_HEALY.all.mb58.gz 95.49MB Kongsberg multibeam vendor format
0508_20140716_120432_HEALY.all.mb58.gz 114.45MB Kongsberg multibeam vendor format
0509_20140716_123432_HEALY.all.mb58.gz 198.02MB Kongsberg multibeam vendor format
0510_20140716_130432_HEALY.all.mb58.gz 192.61MB Kongsberg multibeam vendor format
0511_20140716_133432_HEALY.all.mb58.gz 248.54MB Kongsberg multibeam vendor format
0512_20140716_140432_HEALY.all.mb58.gz 226.96MB Kongsberg multibeam vendor format
0513_20140716_143432_HEALY.all.mb58.gz 195.26MB Kongsberg multibeam vendor format
0514_20140716_150432_HEALY.all.mb58.gz 180.39MB Kongsberg multibeam vendor format
0515_20140716_153432_HEALY.all.mb58.gz 166.99MB Kongsberg multibeam vendor format
0516_20140716_160432_HEALY.all.mb58.gz 165.72MB Kongsberg multibeam vendor format
0517_20140716_163432_HEALY.all.mb58.gz 153.30MB Kongsberg multibeam vendor format
0518_20140716_170432_HEALY.all.mb58.gz 157.01MB Kongsberg multibeam vendor format
0519_20140716_173432_HEALY.all.mb58.gz 193.68MB Kongsberg multibeam vendor format
0520_20140716_180432_HEALY.all.mb58.gz 166.81MB Kongsberg multibeam vendor format
0521_20140716_183432_HEALY.all.mb58.gz 137.68MB Kongsberg multibeam vendor format
0522_20140716_190432_HEALY.all.mb58.gz 128.74MB Kongsberg multibeam vendor format
0523_20140716_193433_HEALY.all.mb58.gz 96.83MB Kongsberg multibeam vendor format
0524_20140716_224341_HEALY.all.mb58.gz 7.99MB Kongsberg multibeam vendor format
0525_20140717_000124_HEALY.all.mb58.gz 116.97MB Kongsberg multibeam vendor format
0526_20140717_003125_HEALY.all.mb58.gz 112.88MB Kongsberg multibeam vendor format
0527_20140717_010125_HEALY.all.mb58.gz 97.15MB Kongsberg multibeam vendor format
0528_20140717_013125_HEALY.all.mb58.gz 104.71MB Kongsberg multibeam vendor format
0529_20140717_020124_HEALY.all.mb58.gz 100.91MB Kongsberg multibeam vendor format
0530_20140717_023125_HEALY.all.mb58.gz 49.53MB Kongsberg multibeam vendor format
0531_20140717_030125_HEALY.all.mb58.gz 25.59MB Kongsberg multibeam vendor format
0532_20140717_103225_HEALY.all.mb58.gz 56.88MB Kongsberg multibeam vendor format
0533_20140717_110226_HEALY.all.mb58.gz 72.87MB Kongsberg multibeam vendor format
0534_20140717_113228_HEALY.all.mb58.gz 70.97MB Kongsberg multibeam vendor format
0535_20140717_120227_HEALY.all.mb58.gz 65.17MB Kongsberg multibeam vendor format
0536_20140717_123225_HEALY.all.mb58.gz 68.23MB Kongsberg multibeam vendor format
0537_20140717_130225_HEALY.all.mb58.gz 63.05MB Kongsberg multibeam vendor format
0538_20140717_133228_HEALY.all.mb58.gz 54.23MB Kongsberg multibeam vendor format
0539_20140717_140227_HEALY.all.mb58.gz 54.02MB Kongsberg multibeam vendor format
0540_20140717_143228_HEALY.all.mb58.gz 53.84MB Kongsberg multibeam vendor format
0541_20140717_150224_HEALY.all.mb58.gz 53.93MB Kongsberg multibeam vendor format
0542_20140717_153225_HEALY.all.mb58.gz 56.08MB Kongsberg multibeam vendor format
0543_20140717_160227_HEALY.all.mb58.gz 55.90MB Kongsberg multibeam vendor format
0544_20140717_163226_HEALY.all.mb58.gz 55.16MB Kongsberg multibeam vendor format
0545_20140717_170224_HEALY.all.mb58.gz 55.54MB Kongsberg multibeam vendor format
0546_20140717_173230_HEALY.all.mb58.gz 41.83MB Kongsberg multibeam vendor format
0547_20140717_180227_HEALY.all.mb58.gz 49.51MB Kongsberg multibeam vendor format
0548_20140717_183224_HEALY.all.mb58.gz 52.30MB Kongsberg multibeam vendor format
0549_20140717_190229_HEALY.all.mb58.gz 51.61MB Kongsberg multibeam vendor format
0550_20140717_193225_HEALY.all.mb58.gz 51.45MB Kongsberg multibeam vendor format
0551_20140717_200225_HEALY.all.mb58.gz 51.81MB Kongsberg multibeam vendor format
0552_20140717_203229_HEALY.all.mb58.gz 45.18MB Kongsberg multibeam vendor format
0553_20140717_210224_HEALY.all.mb58.gz 50.12MB Kongsberg multibeam vendor format
0554_20140717_213234_HEALY.all.mb58.gz 50.66MB Kongsberg multibeam vendor format
0555_20140717_220225_HEALY.all.mb58.gz 47.37MB Kongsberg multibeam vendor format
0556_20140717_223229_HEALY.all.mb58.gz 45.91MB Kongsberg multibeam vendor format
0557_20140717_230233_HEALY.all.mb58.gz 44.91MB Kongsberg multibeam vendor format
0558_20140717_233226_HEALY.all.mb58.gz 50.40MB Kongsberg multibeam vendor format
0559_20140718_000228_HEALY.all.mb58.gz 50.32MB Kongsberg multibeam vendor format
0560_20140718_003227_HEALY.all.mb58.gz 49.62MB Kongsberg multibeam vendor format
0561_20140718_010229_HEALY.all.mb58.gz 46.86MB Kongsberg multibeam vendor format
0562_20140718_013229_HEALY.all.mb58.gz 45.59MB Kongsberg multibeam vendor format
0563_20140718_020232_HEALY.all.mb58.gz 50.13MB Kongsberg multibeam vendor format
0564_20140718_023227_HEALY.all.mb58.gz 50.47MB Kongsberg multibeam vendor format
0565_20140718_030233_HEALY.all.mb58.gz 45.02MB Kongsberg multibeam vendor format
0566_20140718_033224_HEALY.all.mb58.gz 46.70MB Kongsberg multibeam vendor format
0567_20140718_040224_HEALY.all.mb58.gz 47.43MB Kongsberg multibeam vendor format
0568_20140718_043227_HEALY.all.mb58.gz 50.02MB Kongsberg multibeam vendor format
0569_20140718_050224_HEALY.all.mb58.gz 50.26MB Kongsberg multibeam vendor format
0570_20140718_053231_HEALY.all.mb58.gz 44.23MB Kongsberg multibeam vendor format
0571_20140718_060228_HEALY.all.mb58.gz 46.42MB Kongsberg multibeam vendor format
0572_20140718_063233_HEALY.all.mb58.gz 46.14MB Kongsberg multibeam vendor format
0573_20140718_070226_HEALY.all.mb58.gz 43.14MB Kongsberg multibeam vendor format
0574_20140718_073229_HEALY.all.mb58.gz 41.33MB Kongsberg multibeam vendor format
0575_20140718_080233_HEALY.all.mb58.gz 41.41MB Kongsberg multibeam vendor format
0576_20140718_083229_HEALY.all.mb58.gz 45.16MB Kongsberg multibeam vendor format
0577_20140718_090235_HEALY.all.mb58.gz 49.63MB Kongsberg multibeam vendor format
0578_20140718_093231_HEALY.all.mb58.gz 49.82MB Kongsberg multibeam vendor format
0579_20140718_100235_HEALY.all.mb58.gz 49.46MB Kongsberg multibeam vendor format
0580_20140718_103225_HEALY.all.mb58.gz 49.82MB Kongsberg multibeam vendor format
0581_20140718_110232_HEALY.all.mb58.gz 49.51MB Kongsberg multibeam vendor format
0582_20140718_113226_HEALY.all.mb58.gz 47.31MB Kongsberg multibeam vendor format
0583_20140718_120228_HEALY.all.mb58.gz 47.76MB Kongsberg multibeam vendor format
0584_20140718_123225_HEALY.all.mb58.gz 45.78MB Kongsberg multibeam vendor format
0585_20140718_130233_HEALY.all.mb58.gz 44.41MB Kongsberg multibeam vendor format
0586_20140718_133225_HEALY.all.mb58.gz 44.33MB Kongsberg multibeam vendor format
0587_20140718_140231_HEALY.all.mb58.gz 44.32MB Kongsberg multibeam vendor format
0588_20140718_143231_HEALY.all.mb58.gz 44.18MB Kongsberg multibeam vendor format
0589_20140718_150229_HEALY.all.mb58.gz 43.40MB Kongsberg multibeam vendor format
0590_20140718_153226_HEALY.all.mb58.gz 43.50MB Kongsberg multibeam vendor format
0591_20140718_160233_HEALY.all.mb58.gz 43.47MB Kongsberg multibeam vendor format
0592_20140718_163231_HEALY.all.mb58.gz 42.98MB Kongsberg multibeam vendor format
0593_20140718_170231_HEALY.all.mb58.gz 42.98MB Kongsberg multibeam vendor format
0594_20140718_173231_HEALY.all.mb58.gz 42.82MB Kongsberg multibeam vendor format
0595_20140718_180228_HEALY.all.mb58.gz 43.55MB Kongsberg multibeam vendor format
0596_20140718_183231_HEALY.all.mb58.gz 43.85MB Kongsberg multibeam vendor format
0597_20140718_190225_HEALY.all.mb58.gz 44.86MB Kongsberg multibeam vendor format
0598_20140718_193227_HEALY.all.mb58.gz 11.92MB Kongsberg multibeam vendor format
0599_20140718_194114_HEALY.all.mb58.gz 40.70MB Kongsberg multibeam vendor format
0600_20140718_201100_HEALY.all.mb58.gz 22.86MB Kongsberg multibeam vendor format
0601_20140718_202842_HEALY.all.mb58.gz 8.97MB Kongsberg multibeam vendor format
0602_20140718_203809_HEALY.all.mb58.gz 2.48MB Kongsberg multibeam vendor format
0603_20140718_210519_HEALY.all.mb58.gz 60.22MB Kongsberg multibeam vendor format
0604_20140718_213511_HEALY.all.mb58.gz 65.65MB Kongsberg multibeam vendor format
0605_20140718_220512_HEALY.all.mb58.gz 70.95MB Kongsberg multibeam vendor format
0606_20140718_223512_HEALY.all.mb58.gz 57.79MB Kongsberg multibeam vendor format
0607_20140718_230509_HEALY.all.mb58.gz 62.12MB Kongsberg multibeam vendor format
0608_20140718_233512_HEALY.all.mb58.gz 71.79MB Kongsberg multibeam vendor format
0609_20140719_000510_HEALY.all.mb58.gz 68.48MB Kongsberg multibeam vendor format
0610_20140719_003509_HEALY.all.mb58.gz 58.54MB Kongsberg multibeam vendor format
0611_20140719_010511_HEALY.all.mb58.gz 68.46MB Kongsberg multibeam vendor format
0612_20140719_013511_HEALY.all.mb58.gz 66.01MB Kongsberg multibeam vendor format
0613_20140719_020512_HEALY.all.mb58.gz 68.16MB Kongsberg multibeam vendor format
0614_20140719_023512_HEALY.all.mb58.gz 69.58MB Kongsberg multibeam vendor format
0615_20140719_030510_HEALY.all.mb58.gz 75.29MB Kongsberg multibeam vendor format
0616_20140719_033509_HEALY.all.mb58.gz 97.41MB Kongsberg multibeam vendor format
0617_20140719_040509_HEALY.all.mb58.gz 71.49MB Kongsberg multibeam vendor format
0618_20140719_043510_HEALY.all.mb58.gz 116.69MB Kongsberg multibeam vendor format
0619_20140719_050510_HEALY.all.mb58.gz 105.09MB Kongsberg multibeam vendor format
0620_20140719_053509_HEALY.all.mb58.gz 119.64MB Kongsberg multibeam vendor format
0621_20140719_060509_HEALY.all.mb58.gz 130.83MB Kongsberg multibeam vendor format
0622_20140719_063509_HEALY.all.mb58.gz 180.60MB Kongsberg multibeam vendor format
0623_20140719_070509_HEALY.all.mb58.gz 199.44MB Kongsberg multibeam vendor format
0624_20140719_073509_HEALY.all.mb58.gz 168.67MB Kongsberg multibeam vendor format
0625_20140719_080509_HEALY.all.mb58.gz 157.70MB Kongsberg multibeam vendor format
0626_20140719_083509_HEALY.all.mb58.gz 140.68MB Kongsberg multibeam vendor format
0627_20140719_090509_HEALY.all.mb58.gz 156.94MB Kongsberg multibeam vendor format
0628_20140719_093509_HEALY.all.mb58.gz 113.15MB Kongsberg multibeam vendor format
0629_20140719_100509_HEALY.all.mb58.gz 170.25MB Kongsberg multibeam vendor format
0630_20140719_103509_HEALY.all.mb58.gz 103.30MB Kongsberg multibeam vendor format
0631_20140719_110510_HEALY.all.mb58.gz 70.37MB Kongsberg multibeam vendor format
0632_20140719_113510_HEALY.all.mb58.gz 149.28MB Kongsberg multibeam vendor format
0633_20140719_120509_HEALY.all.mb58.gz 197.63MB Kongsberg multibeam vendor format
0634_20140719_123509_HEALY.all.mb58.gz 182.58MB Kongsberg multibeam vendor format
0635_20140719_130510_HEALY.all.mb58.gz 122.17MB Kongsberg multibeam vendor format
0636_20140719_133509_HEALY.all.mb58.gz 128.64MB Kongsberg multibeam vendor format
0637_20140719_140509_HEALY.all.mb58.gz 113.23MB Kongsberg multibeam vendor format
0638_20140719_143509_HEALY.all.mb58.gz 130.96MB Kongsberg multibeam vendor format
0639_20140719_150510_HEALY.all.mb58.gz 131.58MB Kongsberg multibeam vendor format
0640_20140719_153510_HEALY.all.mb58.gz 130.50MB Kongsberg multibeam vendor format
0641_20140719_160509_HEALY.all.mb58.gz 128.57MB Kongsberg multibeam vendor format
0642_20140719_163509_HEALY.all.mb58.gz 122.84MB Kongsberg multibeam vendor format
0643_20140719_170510_HEALY.all.mb58.gz 128.54MB Kongsberg multibeam vendor format
0644_20140719_173509_HEALY.all.mb58.gz 134.84MB Kongsberg multibeam vendor format
0645_20140719_180509_HEALY.all.mb58.gz 132.23MB Kongsberg multibeam vendor format
0646_20140719_183509_HEALY.all.mb58.gz 127.78MB Kongsberg multibeam vendor format
0647_20140719_190509_HEALY.all.mb58.gz 83.96MB Kongsberg multibeam vendor format
0648_20140719_200655_HEALY.all.mb58.gz 109.94MB Kongsberg multibeam vendor format
0649_20140719_203651_HEALY.all.mb58.gz 73.39MB Kongsberg multibeam vendor format
0650_20140719_211902_HEALY.all.mb58.gz 118.47MB Kongsberg multibeam vendor format
0651_20140719_214903_HEALY.all.mb58.gz 113.49MB Kongsberg multibeam vendor format
0652_20140719_221903_HEALY.all.mb58.gz 95.17MB Kongsberg multibeam vendor format
0653_20140719_224903_HEALY.all.mb58.gz 120.06MB Kongsberg multibeam vendor format
0654_20140719_231903_HEALY.all.mb58.gz 176.63MB Kongsberg multibeam vendor format
0655_20140719_234902_HEALY.all.mb58.gz 197.62MB Kongsberg multibeam vendor format
0656_20140720_001902_HEALY.all.mb58.gz 148.91MB Kongsberg multibeam vendor format
0657_20140720_004902_HEALY.all.mb58.gz 152.57MB Kongsberg multibeam vendor format
0658_20140720_011907_HEALY.all.mb58.gz 133.47MB Kongsberg multibeam vendor format
0659_20140720_014907_HEALY.all.mb58.gz 139.70MB Kongsberg multibeam vendor format
0660_20140720_021907_HEALY.all.mb58.gz 159.61MB Kongsberg multibeam vendor format
0661_20140720_024907_HEALY.all.mb58.gz 143.63MB Kongsberg multibeam vendor format
0662_20140720_031907_HEALY.all.mb58.gz 124.14MB Kongsberg multibeam vendor format
0663_20140720_034908_HEALY.all.mb58.gz 103.38MB Kongsberg multibeam vendor format
0664_20140720_041907_HEALY.all.mb58.gz 105.84MB Kongsberg multibeam vendor format
0665_20140720_044907_HEALY.all.mb58.gz 94.24MB Kongsberg multibeam vendor format
0666_20140720_051908_HEALY.all.mb58.gz 90.14MB Kongsberg multibeam vendor format
0667_20140720_054908_HEALY.all.mb58.gz 54.63MB Kongsberg multibeam vendor format
0668_20140720_061907_HEALY.all.mb58.gz 107.13MB Kongsberg multibeam vendor format
0669_20140720_064907_HEALY.all.mb58.gz 157.07MB Kongsberg multibeam vendor format
0670_20140720_071907_HEALY.all.mb58.gz 178.68MB Kongsberg multibeam vendor format
0671_20140720_074908_HEALY.all.mb58.gz 164.97MB Kongsberg multibeam vendor format
0672_20140720_081907_HEALY.all.mb58.gz 173.25MB Kongsberg multibeam vendor format
0673_20140720_084907_HEALY.all.mb58.gz 163.63MB Kongsberg multibeam vendor format
0674_20140720_091907_HEALY.all.mb58.gz 180.20MB Kongsberg multibeam vendor format
0675_20140720_094907_HEALY.all.mb58.gz 102.23MB Kongsberg multibeam vendor format
0676_20140720_101907_HEALY.all.mb58.gz 129.72MB Kongsberg multibeam vendor format
0677_20140720_104907_HEALY.all.mb58.gz 171.49MB Kongsberg multibeam vendor format
0678_20140720_111907_HEALY.all.mb58.gz 155.93MB Kongsberg multibeam vendor format
0679_20140720_114907_HEALY.all.mb58.gz 189.32MB Kongsberg multibeam vendor format
0680_20140720_121907_HEALY.all.mb58.gz 194.96MB Kongsberg multibeam vendor format
0681_20140720_124907_HEALY.all.mb58.gz 185.79MB Kongsberg multibeam vendor format
0682_20140720_131907_HEALY.all.mb58.gz 154.80MB Kongsberg multibeam vendor format
0683_20140720_134907_HEALY.all.mb58.gz 112.15MB Kongsberg multibeam vendor format
0684_20140720_141907_HEALY.all.mb58.gz 104.30MB Kongsberg multibeam vendor format
0685_20140720_144907_HEALY.all.mb58.gz 114.97MB Kongsberg multibeam vendor format
0686_20140720_151908_HEALY.all.mb58.gz 91.79MB Kongsberg multibeam vendor format
0687_20140720_154907_HEALY.all.mb58.gz 104.45MB Kongsberg multibeam vendor format
0688_20140720_161907_HEALY.all.mb58.gz 134.94MB Kongsberg multibeam vendor format
0689_20140720_164907_HEALY.all.mb58.gz 150.28MB Kongsberg multibeam vendor format
0690_20140720_171907_HEALY.all.mb58.gz 186.62MB Kongsberg multibeam vendor format
0691_20140720_174907_HEALY.all.mb58.gz 178.56MB Kongsberg multibeam vendor format
0692_20140720_181907_HEALY.all.mb58.gz 158.56MB Kongsberg multibeam vendor format
0693_20140720_184907_HEALY.all.mb58.gz 115.33MB Kongsberg multibeam vendor format
0694_20140720_191907_HEALY.all.mb58.gz 164.97MB Kongsberg multibeam vendor format
0695_20140720_194907_HEALY.all.mb58.gz 139.52MB Kongsberg multibeam vendor format
0696_20140720_201907_HEALY.all.mb58.gz 118.30MB Kongsberg multibeam vendor format
0697_20140720_204907_HEALY.all.mb58.gz 105.91MB Kongsberg multibeam vendor format
0698_20140720_211907_HEALY.all.mb58.gz 123.66MB Kongsberg multibeam vendor format
0699_20140720_214907_HEALY.all.mb58.gz 152.86MB Kongsberg multibeam vendor format
0700_20140720_221907_HEALY.all.mb58.gz 105.94MB Kongsberg multibeam vendor format
0701_20140720_224907_HEALY.all.mb58.gz 150.93MB Kongsberg multibeam vendor format
0702_20140720_231907_HEALY.all.mb58.gz 128.43MB Kongsberg multibeam vendor format
0703_20140720_234907_HEALY.all.mb58.gz 95.80MB Kongsberg multibeam vendor format
0704_20140721_001907_HEALY.all.mb58.gz 145.19MB Kongsberg multibeam vendor format
0705_20140721_004907_HEALY.all.mb58.gz 183.68MB Kongsberg multibeam vendor format
0706_20140721_011907_HEALY.all.mb58.gz 68.67MB Kongsberg multibeam vendor format
0707_20140721_040310_HEALY.all.mb58.gz 84.56MB Kongsberg multibeam vendor format
0708_20140721_043310_HEALY.all.mb58.gz 76.35MB Kongsberg multibeam vendor format
0709_20140721_050310_HEALY.all.mb58.gz 67.79MB Kongsberg multibeam vendor format
0710_20140721_071006_HEALY.all.mb58.gz 73.23MB Kongsberg multibeam vendor format
0711_20140721_074008_HEALY.all.mb58.gz 84.79MB Kongsberg multibeam vendor format
0712_20140721_081007_HEALY.all.mb58.gz 134.94MB Kongsberg multibeam vendor format
0713_20140721_084007_HEALY.all.mb58.gz 127.08MB Kongsberg multibeam vendor format
0714_20140721_091007_HEALY.all.mb58.gz 130.47MB Kongsberg multibeam vendor format
0715_20140721_094006_HEALY.all.mb58.gz 144.01MB Kongsberg multibeam vendor format
0716_20140721_101006_HEALY.all.mb58.gz 133.60MB Kongsberg multibeam vendor format
0717_20140721_104006_HEALY.all.mb58.gz 185.44MB Kongsberg multibeam vendor format
0718_20140721_111006_HEALY.all.mb58.gz 114.88MB Kongsberg multibeam vendor format
0719_20140721_114006_HEALY.all.mb58.gz 148.25MB Kongsberg multibeam vendor format
0720_20140721_121007_HEALY.all.mb58.gz 104.53MB Kongsberg multibeam vendor format
0721_20140721_124007_HEALY.all.mb58.gz 92.54MB Kongsberg multibeam vendor format
0722_20140721_131007_HEALY.all.mb58.gz 117.42MB Kongsberg multibeam vendor format
0723_20140721_134007_HEALY.all.mb58.gz 87.58MB Kongsberg multibeam vendor format
0724_20140721_141007_HEALY.all.mb58.gz 101.36MB Kongsberg multibeam vendor format
0725_20140721_144006_HEALY.all.mb58.gz 88.05MB Kongsberg multibeam vendor format
0726_20140721_151007_HEALY.all.mb58.gz 90.81MB Kongsberg multibeam vendor format
0727_20140721_154006_HEALY.all.mb58.gz 79.97MB Kongsberg multibeam vendor format
0728_20140721_161008_HEALY.all.mb58.gz 4.96MB Kongsberg multibeam vendor format
0729_20140721_171952_HEALY.all.mb58.gz 86.68MB Kongsberg multibeam vendor format
0730_20140721_174947_HEALY.all.mb58.gz 84.26MB Kongsberg multibeam vendor format
0731_20140721_181947_HEALY.all.mb58.gz 94.25MB Kongsberg multibeam vendor format
0732_20140721_184948_HEALY.all.mb58.gz 92.11MB Kongsberg multibeam vendor format
0733_20140721_191947_HEALY.all.mb58.gz 19.42MB Kongsberg multibeam vendor format
0734_20140721_192653_HEALY.all.mb58.gz 75.74MB Kongsberg multibeam vendor format
0735_20140721_195654_HEALY.all.mb58.gz 74.13MB Kongsberg multibeam vendor format
0736_20140721_202654_HEALY.all.mb58.gz 80.77MB Kongsberg multibeam vendor format
0737_20140721_205652_HEALY.all.mb58.gz 64.07MB Kongsberg multibeam vendor format
0738_20140721_212008_HEALY.all.mb58.gz 91.75MB Kongsberg multibeam vendor format
0739_20140721_215006_HEALY.all.mb58.gz 98.26MB Kongsberg multibeam vendor format
0740_20140721_222005_HEALY.all.mb58.gz 97.42MB Kongsberg multibeam vendor format
0741_20140721_225005_HEALY.all.mb58.gz 86.21MB Kongsberg multibeam vendor format
0742_20140721_232005_HEALY.all.mb58.gz 83.09MB Kongsberg multibeam vendor format
0743_20140721_235004_HEALY.all.mb58.gz 41.06MB Kongsberg multibeam vendor format
0744_20140722_063657_HEALY.all.mb58.gz 66.89MB Kongsberg multibeam vendor format
0745_20140722_070656_HEALY.all.mb58.gz 68.42MB Kongsberg multibeam vendor format
0746_20140722_073657_HEALY.all.mb58.gz 67.20MB Kongsberg multibeam vendor format
0747_20140722_080656_HEALY.all.mb58.gz 46.91MB Kongsberg multibeam vendor format
0748_20140722_083657_HEALY.all.mb58.gz 52.92MB Kongsberg multibeam vendor format
0749_20140722_090658_HEALY.all.mb58.gz 51.93MB Kongsberg multibeam vendor format
0750_20140722_093700_HEALY.all.mb58.gz 49.60MB Kongsberg multibeam vendor format
0751_20140722_100704_HEALY.all.mb58.gz 52.40MB Kongsberg multibeam vendor format
0752_20140722_103704_HEALY.all.mb58.gz 48.11MB Kongsberg multibeam vendor format
0753_20140722_110702_HEALY.all.mb58.gz 47.87MB Kongsberg multibeam vendor format
0754_20140722_113657_HEALY.all.mb58.gz 52.47MB Kongsberg multibeam vendor format
0755_20140722_120700_HEALY.all.mb58.gz 49.51MB Kongsberg multibeam vendor format
0756_20140722_123659_HEALY.all.mb58.gz 11.61MB Kongsberg multibeam vendor format
0757_20140722_124624_HEALY.all.mb58.gz 60.98MB Kongsberg multibeam vendor format
0758_20140722_131624_HEALY.all.mb58.gz 63.32MB Kongsberg multibeam vendor format
0759_20140722_134624_HEALY.all.mb58.gz 66.03MB Kongsberg multibeam vendor format
0760_20140722_141620_HEALY.all.mb58.gz 60.18MB Kongsberg multibeam vendor format
0761_20140722_144624_HEALY.all.mb58.gz 56.46MB Kongsberg multibeam vendor format
0762_20140722_151622_HEALY.all.mb58.gz 55.94MB Kongsberg multibeam vendor format
0763_20140722_154620_HEALY.all.mb58.gz 48.25MB Kongsberg multibeam vendor format
0764_20140722_161621_HEALY.all.mb58.gz 51.66MB Kongsberg multibeam vendor format
0765_20140722_164619_HEALY.all.mb58.gz 60.00MB Kongsberg multibeam vendor format
0766_20140722_171621_HEALY.all.mb58.gz 61.93MB Kongsberg multibeam vendor format
0767_20140722_174623_HEALY.all.mb58.gz 66.77MB Kongsberg multibeam vendor format
0768_20140722_181625_HEALY.all.mb58.gz 63.08MB Kongsberg multibeam vendor format
0769_20140722_184619_HEALY.all.mb58.gz 66.80MB Kongsberg multibeam vendor format
0770_20140722_191620_HEALY.all.mb58.gz 75.60MB Kongsberg multibeam vendor format
0771_20140722_194620_HEALY.all.mb58.gz 63.56MB Kongsberg multibeam vendor format
0772_20140722_201618_HEALY.all.mb58.gz 75.67MB Kongsberg multibeam vendor format
0773_20140722_204618_HEALY.all.mb58.gz 72.09MB Kongsberg multibeam vendor format
0774_20140722_211619_HEALY.all.mb58.gz 91.88MB Kongsberg multibeam vendor format
0775_20140722_214619_HEALY.all.mb58.gz 70.95MB Kongsberg multibeam vendor format
0776_20140722_221619_HEALY.all.mb58.gz 88.46MB Kongsberg multibeam vendor format
0777_20140722_224619_HEALY.all.mb58.gz 99.45MB Kongsberg multibeam vendor format
0778_20140722_231619_HEALY.all.mb58.gz 98.04MB Kongsberg multibeam vendor format
0779_20140722_234618_HEALY.all.mb58.gz 100.34MB Kongsberg multibeam vendor format
0780_20140723_001619_HEALY.all.mb58.gz 101.69MB Kongsberg multibeam vendor format
0781_20140723_004619_HEALY.all.mb58.gz 110.19MB Kongsberg multibeam vendor format
0782_20140723_011620_HEALY.all.mb58.gz 68.11MB Kongsberg multibeam vendor format
0783_20140723_014618_HEALY.all.mb58.gz 79.69MB Kongsberg multibeam vendor format
0784_20140723_021619_HEALY.all.mb58.gz 119.87MB Kongsberg multibeam vendor format
0785_20140723_024619_HEALY.all.mb58.gz 120.27MB Kongsberg multibeam vendor format
0786_20140723_031619_HEALY.all.mb58.gz 88.58MB Kongsberg multibeam vendor format
0787_20140723_034619_HEALY.all.mb58.gz 93.59MB Kongsberg multibeam vendor format
0788_20140723_041619_HEALY.all.mb58.gz 113.17MB Kongsberg multibeam vendor format
0789_20140723_044619_HEALY.all.mb58.gz 80.98MB Kongsberg multibeam vendor format
0790_20140723_051619_HEALY.all.mb58.gz 86.23MB Kongsberg multibeam vendor format
0791_20140723_054619_HEALY.all.mb58.gz 142.06MB Kongsberg multibeam vendor format
0792_20140723_061619_HEALY.all.mb58.gz 92.87MB Kongsberg multibeam vendor format
0793_20140723_064619_HEALY.all.mb58.gz 94.19MB Kongsberg multibeam vendor format
0794_20140723_071619_HEALY.all.mb58.gz 181.89MB Kongsberg multibeam vendor format
0795_20140723_074619_HEALY.all.mb58.gz 170.55MB Kongsberg multibeam vendor format
0796_20140723_081618_HEALY.all.mb58.gz 136.53MB Kongsberg multibeam vendor format
0797_20140723_084619_HEALY.all.mb58.gz 145.69MB Kongsberg multibeam vendor format
0798_20140723_091619_HEALY.all.mb58.gz 176.29MB Kongsberg multibeam vendor format
0799_20140723_094619_HEALY.all.mb58.gz 176.56MB Kongsberg multibeam vendor format
0800_20140723_101619_HEALY.all.mb58.gz 162.77MB Kongsberg multibeam vendor format
0801_20140723_104619_HEALY.all.mb58.gz 187.31MB Kongsberg multibeam vendor format
0802_20140723_111619_HEALY.all.mb58.gz 194.44MB Kongsberg multibeam vendor format
0803_20140723_114618_HEALY.all.mb58.gz 164.97MB Kongsberg multibeam vendor format
0804_20140723_121619_HEALY.all.mb58.gz 168.40MB Kongsberg multibeam vendor format
0805_20140723_124619_HEALY.all.mb58.gz 122.81MB Kongsberg multibeam vendor format
0806_20140723_131618_HEALY.all.mb58.gz 109.73MB Kongsberg multibeam vendor format
0807_20140723_134619_HEALY.all.mb58.gz 162.63MB Kongsberg multibeam vendor format
0808_20140723_141619_HEALY.all.mb58.gz 155.98MB Kongsberg multibeam vendor format
0809_20140723_144619_HEALY.all.mb58.gz 161.91MB Kongsberg multibeam vendor format
0810_20140723_151619_HEALY.all.mb58.gz 174.71MB Kongsberg multibeam vendor format
0811_20140723_154619_HEALY.all.mb58.gz 156.83MB Kongsberg multibeam vendor format
0812_20140723_161619_HEALY.all.mb58.gz 147.74MB Kongsberg multibeam vendor format
0813_20140723_164619_HEALY.all.mb58.gz 183.10MB Kongsberg multibeam vendor format
0814_20140723_171619_HEALY.all.mb58.gz 152.68MB Kongsberg multibeam vendor format
0815_20140723_174618_HEALY.all.mb58.gz 148.16MB Kongsberg multibeam vendor format
0816_20140723_181619_HEALY.all.mb58.gz 189.76MB Kongsberg multibeam vendor format
0817_20140723_184619_HEALY.all.mb58.gz 149.02MB Kongsberg multibeam vendor format
0818_20140723_191618_HEALY.all.mb58.gz 138.01MB Kongsberg multibeam vendor format
0819_20140723_194619_HEALY.all.mb58.gz 235.41MB Kongsberg multibeam vendor format
0820_20140723_201619_HEALY.all.mb58.gz 209.35MB Kongsberg multibeam vendor format
0821_20140723_204619_HEALY.all.mb58.gz 237.11MB Kongsberg multibeam vendor format
0822_20140723_211619_HEALY.all.mb58.gz 128.82MB Kongsberg multibeam vendor format
0823_20140723_214619_HEALY.all.mb58.gz 126.75MB Kongsberg multibeam vendor format
0824_20140723_221619_HEALY.all.mb58.gz 153.21MB Kongsberg multibeam vendor format
0825_20140723_224618_HEALY.all.mb58.gz 125.57MB Kongsberg multibeam vendor format
0826_20140723_231618_HEALY.all.mb58.gz 111.39MB Kongsberg multibeam vendor format
0827_20140723_234618_HEALY.all.mb58.gz 121.83MB Kongsberg multibeam vendor format
0828_20140724_001618_HEALY.all.mb58.gz 198.04MB Kongsberg multibeam vendor format
0829_20140724_004618_HEALY.all.mb58.gz 186.75MB Kongsberg multibeam vendor format
0830_20140724_011619_HEALY.all.mb58.gz 171.88MB Kongsberg multibeam vendor format
0831_20140724_014619_HEALY.all.mb58.gz 185.00MB Kongsberg multibeam vendor format
0832_20140724_021619_HEALY.all.mb58.gz 186.67MB Kongsberg multibeam vendor format
0833_20140724_024619_HEALY.all.mb58.gz 158.30MB Kongsberg multibeam vendor format
0834_20140724_031619_HEALY.all.mb58.gz 179.31MB Kongsberg multibeam vendor format
0835_20140724_034619_HEALY.all.mb58.gz 177.11MB Kongsberg multibeam vendor format
0836_20140724_041619_HEALY.all.mb58.gz 155.03MB Kongsberg multibeam vendor format
0837_20140724_044619_HEALY.all.mb58.gz 176.44MB Kongsberg multibeam vendor format
0838_20140724_051619_HEALY.all.mb58.gz 174.35MB Kongsberg multibeam vendor format
0839_20140724_054619_HEALY.all.mb58.gz 156.66MB Kongsberg multibeam vendor format
0840_20140724_061619_HEALY.all.mb58.gz 120.85MB Kongsberg multibeam vendor format
0841_20140724_064619_HEALY.all.mb58.gz 145.73MB Kongsberg multibeam vendor format
0842_20140724_071619_HEALY.all.mb58.gz 143.86MB Kongsberg multibeam vendor format
0843_20140724_074619_HEALY.all.mb58.gz 121.66MB Kongsberg multibeam vendor format
0844_20140724_081619_HEALY.all.mb58.gz 120.08MB Kongsberg multibeam vendor format
0845_20140724_084619_HEALY.all.mb58.gz 160.81MB Kongsberg multibeam vendor format
0846_20140724_091619_HEALY.all.mb58.gz 69.14MB Kongsberg multibeam vendor format
0847_20140724_094619_HEALY.all.mb58.gz 0.5KB Kongsberg multibeam vendor format
0848_20140724_101618_HEALY.all.mb58.gz 0.5KB Kongsberg multibeam vendor format
0849_20140724_104619_HEALY.all.mb58.gz 0.6KB Kongsberg multibeam vendor format
0850_20140724_111619_HEALY.all.mb58.gz 0.5KB Kongsberg multibeam vendor format
0855_20140724_123452_HEALY.all.mb58.gz 6.26MB Kongsberg multibeam vendor format
0856_20140724_123706_HEALY.all.mb58.gz 159.12MB Kongsberg multibeam vendor format
0857_20140724_130702_HEALY.all.mb58.gz 164.42MB Kongsberg multibeam vendor format
0858_20140724_133702_HEALY.all.mb58.gz 122.61MB Kongsberg multibeam vendor format
0859_20140724_140702_HEALY.all.mb58.gz 105.47MB Kongsberg multibeam vendor format
0860_20140724_143702_HEALY.all.mb58.gz 92.06MB Kongsberg multibeam vendor format
0861_20140724_150702_HEALY.all.mb58.gz 82.84MB Kongsberg multibeam vendor format
0862_20140724_153702_HEALY.all.mb58.gz 163.65MB Kongsberg multibeam vendor format
0863_20140724_160702_HEALY.all.mb58.gz 143.87MB Kongsberg multibeam vendor format
0864_20140724_163702_HEALY.all.mb58.gz 67.22MB Kongsberg multibeam vendor format
0865_20140724_170702_HEALY.all.mb58.gz 78.53MB Kongsberg multibeam vendor format
0866_20140724_173702_HEALY.all.mb58.gz 198.83MB Kongsberg multibeam vendor format
0867_20140724_180702_HEALY.all.mb58.gz 179.71MB Kongsberg multibeam vendor format
0868_20140724_183702_HEALY.all.mb58.gz 101.15MB Kongsberg multibeam vendor format
0869_20140724_190702_HEALY.all.mb58.gz 93.92MB Kongsberg multibeam vendor format
0870_20140724_193702_HEALY.all.mb58.gz 149.63MB Kongsberg multibeam vendor format
0871_20140724_200814_HEALY.all.mb58.gz 175.93MB Kongsberg multibeam vendor format
0872_20140724_203814_HEALY.all.mb58.gz 53.46MB Kongsberg multibeam vendor format
0873_20140724_210814_HEALY.all.mb58.gz 111.10MB Kongsberg multibeam vendor format
0874_20140724_213814_HEALY.all.mb58.gz 201.07MB Kongsberg multibeam vendor format
0875_20140724_220814_HEALY.all.mb58.gz 94.81MB Kongsberg multibeam vendor format
0876_20140724_223814_HEALY.all.mb58.gz 113.68MB Kongsberg multibeam vendor format
0877_20140724_230814_HEALY.all.mb58.gz 170.46MB Kongsberg multibeam vendor format
0878_20140724_233814_HEALY.all.mb58.gz 124.65MB Kongsberg multibeam vendor format
0879_20140725_000814_HEALY.all.mb58.gz 128.97MB Kongsberg multibeam vendor format
0880_20140725_003814_HEALY.all.mb58.gz 138.24MB Kongsberg multibeam vendor format
0881_20140725_010814_HEALY.all.mb58.gz 135.49MB Kongsberg multibeam vendor format
0882_20140725_013815_HEALY.all.mb58.gz 146.76MB Kongsberg multibeam vendor format
0883_20140725_020814_HEALY.all.mb58.gz 138.62MB Kongsberg multibeam vendor format
0884_20140725_023814_HEALY.all.mb58.gz 144.88MB Kongsberg multibeam vendor format
0885_20140725_030814_HEALY.all.mb58.gz 99.41MB Kongsberg multibeam vendor format
0886_20140725_033814_HEALY.all.mb58.gz 129.07MB Kongsberg multibeam vendor format
0887_20140725_040815_HEALY.all.mb58.gz 135.45MB Kongsberg multibeam vendor format
0888_20140725_043814_HEALY.all.mb58.gz 105.88MB Kongsberg multibeam vendor format
0889_20140725_050815_HEALY.all.mb58.gz 102.59MB Kongsberg multibeam vendor format
0890_20140725_053815_HEALY.all.mb58.gz 125.57MB Kongsberg multibeam vendor format
0891_20140725_060815_HEALY.all.mb58.gz 122.70MB Kongsberg multibeam vendor format
0892_20140725_063815_HEALY.all.mb58.gz 127.70MB Kongsberg multibeam vendor format
0893_20140725_070814_HEALY.all.mb58.gz 127.08MB Kongsberg multibeam vendor format
0894_20140725_073815_HEALY.all.mb58.gz 138.67MB Kongsberg multibeam vendor format
0895_20140725_080815_HEALY.all.mb58.gz 148.72MB Kongsberg multibeam vendor format
0896_20140725_083814_HEALY.all.mb58.gz 115.37MB Kongsberg multibeam vendor format
0897_20140725_090815_HEALY.all.mb58.gz 113.21MB Kongsberg multibeam vendor format
0898_20140725_093814_HEALY.all.mb58.gz 106.56MB Kongsberg multibeam vendor format
0899_20140725_100814_HEALY.all.mb58.gz 83.80MB Kongsberg multibeam vendor format
0900_20140725_103814_HEALY.all.mb58.gz 94.37MB Kongsberg multibeam vendor format
0901_20140725_110814_HEALY.all.mb58.gz 79.89MB Kongsberg multibeam vendor format
0902_20140725_113814_HEALY.all.mb58.gz 123.20MB Kongsberg multibeam vendor format
0903_20140725_120814_HEALY.all.mb58.gz 120.68MB Kongsberg multibeam vendor format
0904_20140725_123814_HEALY.all.mb58.gz 126.77MB Kongsberg multibeam vendor format
0905_20140725_130814_HEALY.all.mb58.gz 119.99MB Kongsberg multibeam vendor format
0906_20140725_133814_HEALY.all.mb58.gz 96.67MB Kongsberg multibeam vendor format
0907_20140725_140814_HEALY.all.mb58.gz 106.40MB Kongsberg multibeam vendor format
0908_20140725_143814_HEALY.all.mb58.gz 89.57MB Kongsberg multibeam vendor format
0909_20140725_150814_HEALY.all.mb58.gz 134.15MB Kongsberg multibeam vendor format
0910_20140725_153814_HEALY.all.mb58.gz 142.91MB Kongsberg multibeam vendor format
0911_20140725_160814_HEALY.all.mb58.gz 115.82MB Kongsberg multibeam vendor format
0912_20140725_163814_HEALY.all.mb58.gz 115.34MB Kongsberg multibeam vendor format
0913_20140725_170814_HEALY.all.mb58.gz 126.34MB Kongsberg multibeam vendor format
0914_20140725_173814_HEALY.all.mb58.gz 138.37MB Kongsberg multibeam vendor format
0915_20140725_180814_HEALY.all.mb58.gz 89.82MB Kongsberg multibeam vendor format
0916_20140725_183814_HEALY.all.mb58.gz 94.77MB Kongsberg multibeam vendor format
0917_20140725_190814_HEALY.all.mb58.gz 106.00MB Kongsberg multibeam vendor format
0918_20140725_193814_HEALY.all.mb58.gz 117.09MB Kongsberg multibeam vendor format
0919_20140725_200814_HEALY.all.mb58.gz 123.18MB Kongsberg multibeam vendor format
0920_20140725_203814_HEALY.all.mb58.gz 127.63MB Kongsberg multibeam vendor format
0921_20140725_210814_HEALY.all.mb58.gz 104.67MB Kongsberg multibeam vendor format
0922_20140725_213814_HEALY.all.mb58.gz 125.61MB Kongsberg multibeam vendor format
0923_20140725_220814_HEALY.all.mb58.gz 136.87MB Kongsberg multibeam vendor format
0924_20140725_223814_HEALY.all.mb58.gz 166.97MB Kongsberg multibeam vendor format
0925_20140725_230814_HEALY.all.mb58.gz 160.45MB Kongsberg multibeam vendor format
0926_20140725_233814_HEALY.all.mb58.gz 164.90MB Kongsberg multibeam vendor format
0927_20140726_000814_HEALY.all.mb58.gz 167.37MB Kongsberg multibeam vendor format
0928_20140726_003814_HEALY.all.mb58.gz 172.16MB Kongsberg multibeam vendor format
0929_20140726_010814_HEALY.all.mb58.gz 175.04MB Kongsberg multibeam vendor format
0930_20140726_013814_HEALY.all.mb58.gz 176.82MB Kongsberg multibeam vendor format
0931_20140726_020814_HEALY.all.mb58.gz 174.50MB Kongsberg multibeam vendor format
0932_20140726_023814_HEALY.all.mb58.gz 175.94MB Kongsberg multibeam vendor format
0933_20140726_030814_HEALY.all.mb58.gz 174.39MB Kongsberg multibeam vendor format
0934_20140726_033814_HEALY.all.mb58.gz 175.12MB Kongsberg multibeam vendor format
0935_20140726_040814_HEALY.all.mb58.gz 165.86MB Kongsberg multibeam vendor format
0936_20140726_043814_HEALY.all.mb58.gz 162.59MB Kongsberg multibeam vendor format
0937_20140726_050814_HEALY.all.mb58.gz 165.95MB Kongsberg multibeam vendor format
0938_20140726_053814_HEALY.all.mb58.gz 163.06MB Kongsberg multibeam vendor format
0939_20140726_060814_HEALY.all.mb58.gz 163.25MB Kongsberg multibeam vendor format
0940_20140726_063814_HEALY.all.mb58.gz 164.86MB Kongsberg multibeam vendor format
0941_20140726_070814_HEALY.all.mb58.gz 165.31MB Kongsberg multibeam vendor format
0942_20140726_073814_HEALY.all.mb58.gz 164.58MB Kongsberg multibeam vendor format
0943_20140726_080814_HEALY.all.mb58.gz 158.66MB Kongsberg multibeam vendor format
0944_20140726_083814_HEALY.all.mb58.gz 154.97MB Kongsberg multibeam vendor format
0945_20140726_090814_HEALY.all.mb58.gz 154.11MB Kongsberg multibeam vendor format
0946_20140726_093814_HEALY.all.mb58.gz 153.87MB Kongsberg multibeam vendor format
0947_20140726_100814_HEALY.all.mb58.gz 150.29MB Kongsberg multibeam vendor format
0948_20140726_103814_HEALY.all.mb58.gz 152.36MB Kongsberg multibeam vendor format
0949_20140726_110814_HEALY.all.mb58.gz 156.74MB Kongsberg multibeam vendor format
0950_20140726_113814_HEALY.all.mb58.gz 152.40MB Kongsberg multibeam vendor format
0951_20140726_120814_HEALY.all.mb58.gz 146.76MB Kongsberg multibeam vendor format
0952_20140726_123814_HEALY.all.mb58.gz 145.17MB Kongsberg multibeam vendor format
0953_20140726_130814_HEALY.all.mb58.gz 139.44MB Kongsberg multibeam vendor format
0954_20140726_133814_HEALY.all.mb58.gz 141.15MB Kongsberg multibeam vendor format
0955_20140726_140814_HEALY.all.mb58.gz 143.77MB Kongsberg multibeam vendor format
0956_20140726_143814_HEALY.all.mb58.gz 146.67MB Kongsberg multibeam vendor format
0957_20140726_150814_HEALY.all.mb58.gz 145.78MB Kongsberg multibeam vendor format
0958_20140726_153814_HEALY.all.mb58.gz 176.11MB Kongsberg multibeam vendor format
0959_20140726_160814_HEALY.all.mb58.gz 178.63MB Kongsberg multibeam vendor format
0960_20140726_163814_HEALY.all.mb58.gz 155.97MB Kongsberg multibeam vendor format
0961_20140726_170814_HEALY.all.mb58.gz 160.99MB Kongsberg multibeam vendor format
0962_20140726_173814_HEALY.all.mb58.gz 165.75MB Kongsberg multibeam vendor format
0963_20140726_180814_HEALY.all.mb58.gz 172.98MB Kongsberg multibeam vendor format
0964_20140726_183814_HEALY.all.mb58.gz 178.56MB Kongsberg multibeam vendor format
0965_20140726_190814_HEALY.all.mb58.gz 189.48MB Kongsberg multibeam vendor format
0966_20140726_193814_HEALY.all.mb58.gz 200.76MB Kongsberg multibeam vendor format
0967_20140726_200814_HEALY.all.mb58.gz 211.70MB Kongsberg multibeam vendor format
0968_20140726_203814_HEALY.all.mb58.gz 198.69MB Kongsberg multibeam vendor format
0969_20140726_210814_HEALY.all.mb58.gz 188.95MB Kongsberg multibeam vendor format
0970_20140726_213814_HEALY.all.mb58.gz 171.81MB Kongsberg multibeam vendor format
0971_20140726_220814_HEALY.all.mb58.gz 156.23MB Kongsberg multibeam vendor format
0972_20140726_223814_HEALY.all.mb58.gz 165.52MB Kongsberg multibeam vendor format
0973_20140726_230814_HEALY.all.mb58.gz 182.75MB Kongsberg multibeam vendor format
0974_20140726_233814_HEALY.all.mb58.gz 148.30MB Kongsberg multibeam vendor format
0975_20140727_000814_HEALY.all.mb58.gz 191.68MB Kongsberg multibeam vendor format
0976_20140727_003814_HEALY.all.mb58.gz 177.94MB Kongsberg multibeam vendor format
0977_20140727_010819_HEALY.all.mb58.gz 165.26MB Kongsberg multibeam vendor format
0978_20140727_013819_HEALY.all.mb58.gz 155.64MB Kongsberg multibeam vendor format
0979_20140727_020819_HEALY.all.mb58.gz 162.09MB Kongsberg multibeam vendor format
0980_20140727_023819_HEALY.all.mb58.gz 154.40MB Kongsberg multibeam vendor format
0981_20140727_030819_HEALY.all.mb58.gz 161.93MB Kongsberg multibeam vendor format
0982_20140727_033819_HEALY.all.mb58.gz 156.36MB Kongsberg multibeam vendor format
0983_20140727_040819_HEALY.all.mb58.gz 166.53MB Kongsberg multibeam vendor format
0984_20140727_043819_HEALY.all.mb58.gz 185.41MB Kongsberg multibeam vendor format
0985_20140727_050819_HEALY.all.mb58.gz 194.99MB Kongsberg multibeam vendor format
0986_20140727_053819_HEALY.all.mb58.gz 194.84MB Kongsberg multibeam vendor format
0987_20140727_060819_HEALY.all.mb58.gz 195.07MB Kongsberg multibeam vendor format
0988_20140727_063819_HEALY.all.mb58.gz 195.00MB Kongsberg multibeam vendor format
0989_20140727_070819_HEALY.all.mb58.gz 194.96MB Kongsberg multibeam vendor format
0990_20140727_073819_HEALY.all.mb58.gz 195.49MB Kongsberg multibeam vendor format
0991_20140727_080819_HEALY.all.mb58.gz 194.79MB Kongsberg multibeam vendor format
0992_20140727_083819_HEALY.all.mb58.gz 194.36MB Kongsberg multibeam vendor format
0993_20140727_090819_HEALY.all.mb58.gz 194.22MB Kongsberg multibeam vendor format
0994_20140727_093819_HEALY.all.mb58.gz 193.96MB Kongsberg multibeam vendor format
0995_20140727_100819_HEALY.all.mb58.gz 206.43MB Kongsberg multibeam vendor format
0996_20140727_103819_HEALY.all.mb58.gz 217.24MB Kongsberg multibeam vendor format
0997_20140727_110819_HEALY.all.mb58.gz 274.62MB Kongsberg multibeam vendor format
0998_20140727_113819_HEALY.all.mb58.gz 283.12MB Kongsberg multibeam vendor format
0999_20140727_120819_HEALY.all.mb58.gz 294.96MB Kongsberg multibeam vendor format
1000_20140727_123819_HEALY.all.mb58.gz 289.27MB Kongsberg multibeam vendor format
1001_20140727_130819_HEALY.all.mb58.gz 276.01MB Kongsberg multibeam vendor format
1002_20140727_133819_HEALY.all.mb58.gz 250.79MB Kongsberg multibeam vendor format
1003_20140727_140819_HEALY.all.mb58.gz 259.56MB Kongsberg multibeam vendor format
1004_20140727_143819_HEALY.all.mb58.gz 272.14MB Kongsberg multibeam vendor format
1005_20140727_150819_HEALY.all.mb58.gz 259.69MB Kongsberg multibeam vendor format
1006_20140727_153819_HEALY.all.mb58.gz 270.21MB Kongsberg multibeam vendor format
1007_20140727_160819_HEALY.all.mb58.gz 309.47MB Kongsberg multibeam vendor format
1008_20140727_163819_HEALY.all.mb58.gz 305.24MB Kongsberg multibeam vendor format
1009_20140727_170819_HEALY.all.mb58.gz 296.55MB Kongsberg multibeam vendor format
1010_20140727_173819_HEALY.all.mb58.gz 289.26MB Kongsberg multibeam vendor format
1011_20140727_180819_HEALY.all.mb58.gz 307.82MB Kongsberg multibeam vendor format
1012_20140727_183819_HEALY.all.mb58.gz 307.44MB Kongsberg multibeam vendor format
1013_20140727_190819_HEALY.all.mb58.gz 306.71MB Kongsberg multibeam vendor format
1014_20140727_193819_HEALY.all.mb58.gz 306.24MB Kongsberg multibeam vendor format
1015_20140727_200819_HEALY.all.mb58.gz 284.50MB Kongsberg multibeam vendor format
1016_20140727_203819_HEALY.all.mb58.gz 269.05MB Kongsberg multibeam vendor format
1017_20140727_210819_HEALY.all.mb58.gz 278.33MB Kongsberg multibeam vendor format
1018_20140727_213819_HEALY.all.mb58.gz 286.85MB Kongsberg multibeam vendor format
1019_20140727_220819_HEALY.all.mb58.gz 297.85MB Kongsberg multibeam vendor format
1020_20140727_223819_HEALY.all.mb58.gz 302.47MB Kongsberg multibeam vendor format
1021_20140727_230819_HEALY.all.mb58.gz 298.90MB Kongsberg multibeam vendor format
1022_20140727_233819_HEALY.all.mb58.gz 273.85MB Kongsberg multibeam vendor format
1023_20140728_000819_HEALY.all.mb58.gz 248.92MB Kongsberg multibeam vendor format
1024_20140728_003819_HEALY.all.mb58.gz 235.19MB Kongsberg multibeam vendor format
1025_20140728_010819_HEALY.all.mb58.gz 224.54MB Kongsberg multibeam vendor format
1026_20140728_013819_HEALY.all.mb58.gz 239.02MB Kongsberg multibeam vendor format
1027_20140728_020819_HEALY.all.mb58.gz 269.58MB Kongsberg multibeam vendor format
1028_20140728_023819_HEALY.all.mb58.gz 277.21MB Kongsberg multibeam vendor format
1029_20140728_030819_HEALY.all.mb58.gz 279.68MB Kongsberg multibeam vendor format
1030_20140728_033819_HEALY.all.mb58.gz 293.38MB Kongsberg multibeam vendor format
1031_20140728_040819_HEALY.all.mb58.gz 305.39MB Kongsberg multibeam vendor format
1032_20140728_043819_HEALY.all.mb58.gz 304.07MB Kongsberg multibeam vendor format
1033_20140728_050819_HEALY.all.mb58.gz 300.54MB Kongsberg multibeam vendor format
1034_20140728_053819_HEALY.all.mb58.gz 302.47MB Kongsberg multibeam vendor format
1035_20140728_060819_HEALY.all.mb58.gz 289.38MB Kongsberg multibeam vendor format
1036_20140728_063819_HEALY.all.mb58.gz 272.23MB Kongsberg multibeam vendor format
1037_20140728_070819_HEALY.all.mb58.gz 278.57MB Kongsberg multibeam vendor format
1038_20140728_073819_HEALY.all.mb58.gz 268.66MB Kongsberg multibeam vendor format
1039_20140728_080819_HEALY.all.mb58.gz 265.08MB Kongsberg multibeam vendor format
1040_20140728_083819_HEALY.all.mb58.gz 264.35MB Kongsberg multibeam vendor format
1041_20140728_090819_HEALY.all.mb58.gz 253.01MB Kongsberg multibeam vendor format
1042_20140728_093819_HEALY.all.mb58.gz 256.63MB Kongsberg multibeam vendor format
1043_20140728_100819_HEALY.all.mb58.gz 247.31MB Kongsberg multibeam vendor format
1044_20140728_103819_HEALY.all.mb58.gz 239.79MB Kongsberg multibeam vendor format
1045_20140728_110819_HEALY.all.mb58.gz 236.71MB Kongsberg multibeam vendor format
1046_20140728_113819_HEALY.all.mb58.gz 229.72MB Kongsberg multibeam vendor format
1047_20140728_120819_HEALY.all.mb58.gz 239.05MB Kongsberg multibeam vendor format
1048_20140728_123819_HEALY.all.mb58.gz 232.28MB Kongsberg multibeam vendor format
1049_20140728_130819_HEALY.all.mb58.gz 230.35MB Kongsberg multibeam vendor format
1050_20140728_133819_HEALY.all.mb58.gz 232.36MB Kongsberg multibeam vendor format
1051_20140728_140819_HEALY.all.mb58.gz 221.89MB Kongsberg multibeam vendor format
1052_20140728_143819_HEALY.all.mb58.gz 211.65MB Kongsberg multibeam vendor format
1053_20140728_150819_HEALY.all.mb58.gz 207.01MB Kongsberg multibeam vendor format
1054_20140728_153819_HEALY.all.mb58.gz 206.81MB Kongsberg multibeam vendor format
1055_20140728_160819_HEALY.all.mb58.gz 196.35MB Kongsberg multibeam vendor format
1056_20140728_163819_HEALY.all.mb58.gz 197.67MB Kongsberg multibeam vendor format
1057_20140728_170819_HEALY.all.mb58.gz 192.58MB Kongsberg multibeam vendor format
1058_20140728_173819_HEALY.all.mb58.gz 195.48MB Kongsberg multibeam vendor format
1059_20140728_180819_HEALY.all.mb58.gz 183.79MB Kongsberg multibeam vendor format
1060_20140728_183819_HEALY.all.mb58.gz 172.44MB Kongsberg multibeam vendor format
1061_20140728_190819_HEALY.all.mb58.gz 188.49MB Kongsberg multibeam vendor format
1062_20140728_193819_HEALY.all.mb58.gz 188.78MB Kongsberg multibeam vendor format
1063_20140728_200819_HEALY.all.mb58.gz 195.94MB Kongsberg multibeam vendor format
1064_20140728_203819_HEALY.all.mb58.gz 196.17MB Kongsberg multibeam vendor format
1065_20140728_210819_HEALY.all.mb58.gz 196.19MB Kongsberg multibeam vendor format
1066_20140728_213819_HEALY.all.mb58.gz 196.54MB Kongsberg multibeam vendor format
1067_20140728_220819_HEALY.all.mb58.gz 196.62MB Kongsberg multibeam vendor format
1068_20140728_223819_HEALY.all.mb58.gz 196.40MB Kongsberg multibeam vendor format
1069_20140728_230819_HEALY.all.mb58.gz 196.79MB Kongsberg multibeam vendor format
1070_20140728_233819_HEALY.all.mb58.gz 196.94MB Kongsberg multibeam vendor format
1071_20140729_000819_HEALY.all.mb58.gz 197.13MB Kongsberg multibeam vendor format
1072_20140729_003819_HEALY.all.mb58.gz 197.60MB Kongsberg multibeam vendor format
1073_20140729_010819_HEALY.all.mb58.gz 198.23MB Kongsberg multibeam vendor format
1074_20140729_013819_HEALY.all.mb58.gz 196.21MB Kongsberg multibeam vendor format
1075_20140729_020819_HEALY.all.mb58.gz 190.40MB Kongsberg multibeam vendor format
1076_20140729_023819_HEALY.all.mb58.gz 183.88MB Kongsberg multibeam vendor format
1077_20140729_030819_HEALY.all.mb58.gz 174.64MB Kongsberg multibeam vendor format
1078_20140729_033820_HEALY.all.mb58.gz 179.37MB Kongsberg multibeam vendor format
1079_20140729_040819_HEALY.all.mb58.gz 176.70MB Kongsberg multibeam vendor format
1080_20140729_043819_HEALY.all.mb58.gz 177.92MB Kongsberg multibeam vendor format
1081_20140729_050819_HEALY.all.mb58.gz 175.31MB Kongsberg multibeam vendor format
1082_20140729_053819_HEALY.all.mb58.gz 177.50MB Kongsberg multibeam vendor format
1083_20140729_060819_HEALY.all.mb58.gz 178.94MB Kongsberg multibeam vendor format
1084_20140729_063819_HEALY.all.mb58.gz 172.57MB Kongsberg multibeam vendor format
1085_20140729_070819_HEALY.all.mb58.gz 177.15MB Kongsberg multibeam vendor format
1086_20140729_073819_HEALY.all.mb58.gz 176.20MB Kongsberg multibeam vendor format
1087_20140729_080819_HEALY.all.mb58.gz 171.60MB Kongsberg multibeam vendor format
1088_20140729_083819_HEALY.all.mb58.gz 164.86MB Kongsberg multibeam vendor format
1089_20140729_090819_HEALY.all.mb58.gz 163.31MB Kongsberg multibeam vendor format
1090_20140729_093819_HEALY.all.mb58.gz 161.02MB Kongsberg multibeam vendor format
1091_20140729_100820_HEALY.all.mb58.gz 162.00MB Kongsberg multibeam vendor format
1092_20140729_103819_HEALY.all.mb58.gz 162.61MB Kongsberg multibeam vendor format
1093_20140729_110819_HEALY.all.mb58.gz 161.91MB Kongsberg multibeam vendor format
1094_20140729_113819_HEALY.all.mb58.gz 161.38MB Kongsberg multibeam vendor format
1095_20140729_120820_HEALY.all.mb58.gz 160.75MB Kongsberg multibeam vendor format
1096_20140729_123820_HEALY.all.mb58.gz 159.82MB Kongsberg multibeam vendor format
1097_20140729_130819_HEALY.all.mb58.gz 149.90MB Kongsberg multibeam vendor format
1098_20140729_133819_HEALY.all.mb58.gz 171.37MB Kongsberg multibeam vendor format
1099_20140729_140819_HEALY.all.mb58.gz 196.69MB Kongsberg multibeam vendor format
1100_20140729_143819_HEALY.all.mb58.gz 196.36MB Kongsberg multibeam vendor format
1101_20140729_150819_HEALY.all.mb58.gz 170.85MB Kongsberg multibeam vendor format
1102_20140729_153819_HEALY.all.mb58.gz 102.24MB Kongsberg multibeam vendor format
1103_20140729_160821_HEALY.all.mb58.gz 90.36MB Kongsberg multibeam vendor format
1104_20140729_163820_HEALY.all.mb58.gz 68.36MB Kongsberg multibeam vendor format
1105_20140729_170819_HEALY.all.mb58.gz 78.29MB Kongsberg multibeam vendor format
1106_20140729_173821_HEALY.all.mb58.gz 78.91MB Kongsberg multibeam vendor format
1107_20140729_180821_HEALY.all.mb58.gz 21.00MB Kongsberg multibeam vendor format
9999.all.mb58.gz 30.27MB Kongsberg multibeam vendor format

Metadata Files: 2

Files File Size Description
HLY1402_Multibeam.xml NGDC created ISO metadata
em122_bag_info.tar.gz 128.3KB Additional cruise information

Water Column Sonar Data

Water Column Sonar Data Available: WCSD Map Viewer